Wetterdaten: Mittwoch, 04.10.2017
Datum Zeit Temp. Aussen Temp. o. S. +5cm Feuchte Auss BlattFeu 1 Luftdruck Regen Sonnenschein Regendauer Solar Windben Empfang
04.10.2017 00:00 10,8 C 10,6 C 9,4 C 89 % 0 lf 1023,2 hPa 0,0 l/m 0 min 0 min 0 W/m 10,5 km/h (2 Bft) 100,00 %
04.10.2017 00:02 10,8 C 10,6 C 9,4 C 89 % 0 lf 1023,1 hPa 0,0 l/m 0 min 0 min 0 W/m 14,6 km/h (3 Bft) 93,94 %
04.10.2017 00:04 10,8 C 10,6 C 9,4 C 89 % 0 lf 1023,1 hPa 0,0 l/m 0 min 0 min 0 W/m 10,5 km/h (2 Bft) 100,00 %
04.10.2017 00:07 10,8 C 10,6 C 9,4 C 89 % 0 lf 1023,2 hPa 0,0 l/m 0 min 0 min 7 W/m 16,7 km/h (3 Bft) 100,00 %
04.10.2017 00:08 10,8 C 10,6 C 9,4 C 89 % 0 lf 1023,2 hPa 0,0 l/m 0 min 0 min 0 W/m 16,7 km/h (3 Bft) 100,00 %
04.10.2017 00:10 10,8 C 10,6 C 9,4 C 89 % 0 lf 1023,2 hPa 0,0 l/m 0 min 0 min 0 W/m 10,5 km/h (2 Bft) 100,00 %
04.10.2017 00:12 10,8 C 10,6 C 9,4 C 89 % 0 lf 1023,2 hPa 0,0 l/m 0 min 0 min 0 W/m 8,4 km/h (2 Bft) 100,00 %
04.10.2017 00:14 10,8 C 10,6 C 9,4 C 89 % 0 lf 1023,2 hPa 0,0 l/m 0 min 0 min 0 W/m 14,6 km/h (3 Bft) 100,00 %
04.10.2017 00:16 10,8 C 10,6 C 9,4 C 89 % 0 lf 1023,3 hPa 0,0 l/m 0 min 0 min 0 W/m 14,6 km/h (3 Bft) 100,00 %
04.10.2017 00:18 10,8 C 10,6 C 9,4 C 89 % 0 lf 1023,3 hPa 0,0 l/m 0 min 0 min 0 W/m 12,6 km/h (3 Bft) 100,00 %
04.10.2017 00:20 10,8 C 10,6 C 9,4 C 89 % 0 lf 1023,3 hPa 0,0 l/m 0 min 0 min 0 W/m 12,6 km/h (3 Bft) 98,28 %
04.10.2017 00:22 10,8 C 10,6 C 9,4 C 89 % 0 lf 1023,3 hPa 0,0 l/m 0 min 0 min 0 W/m 14,6 km/h (3 Bft) 100,00 %
04.10.2017 00:24 10,8 C 10,6 C 9,4 C 89 % 0 lf 1023,3 hPa 0,0 l/m 0 min 0 min 0 W/m 14,6 km/h (3 Bft) 97,87 %
04.10.2017 00:26 10,8 C 10,6 C 9,4 C 89 % 0 lf 1023,3 hPa 0,0 l/m 0 min 0 min 0 W/m 14,6 km/h (3 Bft) 97,87 %
04.10.2017 00:28 10,8 C 10,6 C 9,4 C 89 % 0 lf 1023,3 hPa 0,0 l/m 0 min 0 min 0 W/m 12,6 km/h (3 Bft) 95,74 %
04.10.2017 00:30 10,8 C 10,6 C 9,4 C 89 % 0 lf 1023,4 hPa 0,0 l/m 0 min 0 min 0 W/m 12,6 km/h (3 Bft) 93,62 %
04.10.2017 00:32 10,8 C 10,6 C 9,4 C 89 % 0 lf 1023,4 hPa 0,0 l/m 0 min 0 min 0 W/m 14,6 km/h (3 Bft) 95,74 %
04.10.2017 00:34 10,8 C 10,6 C 9,4 C 89 % 0 lf 1023,4 hPa 0,0 l/m 0 min 0 min 0 W/m 12,6 km/h (3 Bft) 91,30 %
04.10.2017 00:36 10,8 C 10,6 C 9,4 C 89 % 0 lf 1023,3 hPa 0,0 l/m 0 min 0 min 0 W/m 10,5 km/h (2 Bft) 95,74 %
04.10.2017 00:38 10,8 C 10,6 C 9,4 C 89 % 0 lf 1023,3 hPa 0,0 l/m 0 min 0 min 0 W/m 16,7 km/h (3 Bft) 95,74 %
04.10.2017 00:40 10,8 C 10,6 C 9,4 C 89 % 0 lf 1023,1 hPa 0,0 l/m 0 min 0 min 0 W/m 10,5 km/h (2 Bft) 95,65 %
04.10.2017 00:42 10,8 C 10,6 C 9,4 C 89 % 0 lf 1023,1 hPa 0,0 l/m 0 min 0 min 0 W/m 14,6 km/h (3 Bft) 91,49 %
04.10.2017 00:44 10,8 C 10,6 C 9,4 C 89 % 0 lf 1023,1 hPa 0,0 l/m 0 min 0 min 0 W/m 14,6 km/h (3 Bft) 93,62 %
04.10.2017 00:46 10,8 C 10,6 C 9,4 C 89 % 0 lf 1023,1 hPa 0,0 l/m 0 min 0 min 0 W/m 12,6 km/h (3 Bft) 91,30 %
04.10.2017 00:48 10,8 C 10,6 C 9,4 C 89 % 0 lf 1023,1 hPa 0,0 l/m 0 min 0 min 5 W/m 14,6 km/h (3 Bft) 89,36 %
04.10.2017 00:50 10,8 C 10,6 C 9,4 C 89 % 0 lf 1023,1 hPa 0,0 l/m 0 min 0 min 5 W/m 12,6 km/h (3 Bft) 93,22 %
04.10.2017 00:52 10,8 C 10,6 C 9,4 C 89 % 0 lf 1023,2 hPa 0,0 l/m 0 min 0 min 5 W/m 14,6 km/h (3 Bft) 88,57 %
04.10.2017 00:54 10,8 C 10,6 C 9,4 C 89 % 0 lf 1023,2 hPa 0,0 l/m 0 min 0 min 5 W/m 16,7 km/h (3 Bft) 91,49 %
04.10.2017 00:56 10,8 C 10,6 C 9,4 C 89 % 0 lf 1023,2 hPa 0,0 l/m 0 min 0 min 5 W/m 12,6 km/h (3 Bft) 93,62 %
04.10.2017 00:58 10,8 C 10,6 C 9,4 C 89 % 0 lf 1023,1 hPa 0,0 l/m 0 min 0 min 5 W/m 10,5 km/h (2 Bft) 91,30 %
04.10.2017 01:00 10,8 C 10,6 C 9,4 C 89 % 0 lf 1023,2 hPa 0,0 l/m 0 min 0 min 5 W/m 14,6 km/h (3 Bft) 91,49 %
04.10.2017 01:02 10,8 C 10,6 C 9,4 C 89 % 0 lf 1023,2 hPa 0,0 l/m 0 min 0 min 5 W/m 14,6 km/h (3 Bft) 91,49 %
04.10.2017 01:04 10,8 C 10,6 C 9,4 C 89 % 0 lf 1023,2 hPa 0,0 l/m 0 min 0 min 5 W/m 12,6 km/h (3 Bft) 95,74 %
04.10.2017 01:06 10,8 C 10,6 C 9,4 C 89 % 0 lf 1023,2 hPa 0,0 l/m 0 min 0 min 5 W/m 16,7 km/h (3 Bft) 95,74 %
04.10.2017 01:08 10,8 C 10,6 C 9,4 C 89 % 0 lf 1023,2 hPa 0,0 l/m 0 min 0 min 5 W/m 12,6 km/h (3 Bft) 91,49 %
04.10.2017 01:10 10,8 C 10,6 C 10,0 C 89 % 0 lf 1023,2 hPa 0,0 l/m 0 min 0 min 5 W/m 12,6 km/h (3 Bft) 93,48 %
04.10.2017 01:12 10,9 C 11,1 C 10,0 C 89 % 0 lf 1023,2 hPa 0,0 l/m 0 min 0 min 5 W/m 14,6 km/h (3 Bft) 95,74 %
04.10.2017 01:14 10,9 C 11,1 C 10,0 C 89 % 0 lf 1023,1 hPa 0,0 l/m 0 min 0 min 5 W/m 16,7 km/h (3 Bft) 91,49 %
04.10.2017 01:16 10,9 C 11,1 C 10,0 C 89 % 0 lf 1023,1 hPa 0,0 l/m 0 min 0 min 5 W/m 16,7 km/h (3 Bft) 93,62 %
04.10.2017 01:18 10,9 C 11,1 C 10,0 C 89 % 0 lf 1023,0 hPa 0,0 l/m 0 min 0 min 5 W/m 16,7 km/h (3 Bft) 93,62 %
04.10.2017 01:20 10,9 C 11,1 C 10,0 C 89 % 0 lf 1023,0 hPa 0,0 l/m 0 min 0 min 5 W/m 16,7 km/h (3 Bft) 91,49 %
04.10.2017 01:22 10,9 C 11,1 C 10,0 C 89 % 0 lf 1022,9 hPa 0,0 l/m 0 min 0 min 5 W/m 18,8 km/h (3 Bft) 95,65 %
04.10.2017 01:24 10,9 C 11,1 C 10,0 C 89 % 0 lf 1022,9 hPa 0,0 l/m 0 min 0 min 5 W/m 16,7 km/h (3 Bft) 91,49 %
04.10.2017 01:26 11,0 C 11,1 C 10,0 C 89 % 0 lf 1023,0 hPa 0,0 l/m 0 min 0 min 5 W/m 18,8 km/h (3 Bft) 97,87 %
04.10.2017 01:28 11,0 C 11,1 C 10,0 C 89 % 0 lf 1023,0 hPa 0,0 l/m 0 min 0 min 5 W/m 18,8 km/h (3 Bft) 95,74 %
04.10.2017 01:30 11,0 C 11,1 C 10,0 C 89 % 0 lf 1023,0 hPa 0,0 l/m 0 min 0 min 5 W/m 18,8 km/h (3 Bft) 95,74 %
04.10.2017 01:32 11,1 C 11,1 C 10,0 C 89 % 0 lf 1023,0 hPa 0,0 l/m 0 min 0 min 5 W/m 14,6 km/h (3 Bft) 95,74 %
04.10.2017 01:34 11,1 C 11,1 C 10,0 C 89 % 0 lf 1023,0 hPa 0,0 l/m 0 min 0 min 5 W/m 16,7 km/h (3 Bft) 95,65 %
04.10.2017 01:36 11,1 C 11,1 C 10,0 C 89 % 0 lf 1023,1 hPa 0,0 l/m 0 min 0 min 5 W/m 14,6 km/h (3 Bft) 95,74 %
04.10.2017 01:38 11,1 C 10,6 C 9,4 C 89 % 0 lf 1023,0 hPa 0,0 l/m 0 min 0 min 5 W/m 16,7 km/h (3 Bft) 95,74 %
04.10.2017 01:40 11,1 C 10,6 C 9,4 C 89 % 0 lf 1023,0 hPa 0,0 l/m 0 min 0 min 5 W/m 18,8 km/h (3 Bft) 95,74 %
04.10.2017 01:42 11,1 C 11,1 C 9,4 C 88 % 0 lf 1023,0 hPa 0,0 l/m 0 min 0 min 5 W/m 18,8 km/h (3 Bft) 95,74 %
04.10.2017 01:44 11,1 C 10,6 C 9,4 C 88 % 0 lf 1023,1 hPa 0,0 l/m 0 min 0 min 5 W/m 14,6 km/h (3 Bft) 93,48 %
04.10.2017 01:46 11,1 C 10,6 C 9,4 C 88 % 0 lf 1023,1 hPa 0,0 l/m 0 min 0 min 5 W/m 16,7 km/h (3 Bft) 95,74 %
04.10.2017 01:48 11,1 C 10,6 C 9,4 C 88 % 0 lf 1023,1 hPa 0,0 l/m 0 min 0 min 5 W/m 16,7 km/h (3 Bft) 95,74 %
04.10.2017 01:50 11,1 C 10,6 C 9,4 C 88 % 0 lf 1023,1 hPa 0,0 l/m 0 min 0 min 5 W/m 20,9 km/h (4 Bft) 93,62 %
04.10.2017 01:52 11,1 C 10,6 C 9,4 C 88 % 0 lf 1023,1 hPa 0,0 l/m 0 min 0 min 5 W/m 14,6 km/h (3 Bft) 93,62 %
04.10.2017 01:54 11,1 C 10,6 C 9,4 C 88 % 0 lf 1023,0 hPa 0,0 l/m 0 min 0 min 5 W/m 16,7 km/h (3 Bft) 97,87 %
04.10.2017 01:56 11,1 C 10,6 C 9,4 C 88 % 0 lf 1023,0 hPa 0,0 l/m 0 min 0 min 5 W/m 16,7 km/h (3 Bft) 93,48 %
04.10.2017 01:58 11,1 C 10,6 C 9,4 C 88 % 0 lf 1023,0 hPa 0,0 l/m 0 min 0 min 5 W/m 12,6 km/h (3 Bft) 100,00 %
04.10.2017 02:00 11,1 C 10,6 C 9,4 C 88 % 0 lf 1023,1 hPa 0,0 l/m 0 min 0 min 5 W/m 16,7 km/h (3 Bft) 97,87 %
04.10.2017 02:02 11,1 C 10,6 C 9,4 C 88 % 0 lf 1023,0 hPa 0,0 l/m 0 min 0 min 5 W/m 16,7 km/h (3 Bft) 97,87 %
04.10.2017 02:04 11,1 C 10,6 C 9,4 C 88 % 0 lf 1023,0 hPa 0,0 l/m 0 min 0 min 5 W/m 14,6 km/h (3 Bft) 100,00 %
04.10.2017 02:06 11,0 C 10,6 C 9,4 C 88 % 0 lf 1023,0 hPa 0,0 l/m 0 min 0 min 5 W/m 16,7 km/h (3 Bft) 95,74 %
04.10.2017 02:08 11,0 C 10,6 C 9,4 C 88 % 0 lf 1022,9 hPa 0,0 l/m 0 min 0 min 5 W/m 16,7 km/h (3 Bft) 100,00 %
04.10.2017 02:10 11,0 C 10,6 C 9,4 C 88 % 0 lf 1022,8 hPa 0,0 l/m 0 min 0 min 5 W/m 12,6 km/h (3 Bft) 93,62 %
04.10.2017 02:12 11,0 C 10,6 C 9,4 C 88 % 0 lf 1022,9 hPa 0,0 l/m 0 min 0 min 5 W/m 10,5 km/h (2 Bft) 95,74 %
04.10.2017 02:14 11,0 C 10,6 C 9,4 C 88 % 0 lf 1022,9 hPa 0,0 l/m 0 min 0 min 5 W/m 6,3 km/h (2 Bft) 97,87 %
04.10.2017 02:16 11,0 C 10,6 C 9,4 C 88 % 0 lf 1023,0 hPa 0,0 l/m 0 min 0 min 5 W/m 10,5 km/h (2 Bft) 100,00 %
04.10.2017 02:18 11,0 C 10,6 C 9,4 C 88 % 0 lf 1023,0 hPa 0,0 l/m 0 min 0 min 5 W/m 12,6 km/h (3 Bft) 100,00 %
04.10.2017 02:20 10,9 C 10,6 C 9,4 C 88 % 0 lf 1023,0 hPa 0,0 l/m 0 min 0 min 5 W/m 10,5 km/h (2 Bft) 100,00 %
04.10.2017 02:22 10,9 C 10,6 C 9,4 C 88 % 0 lf 1022,9 hPa 0,0 l/m 0 min 0 min 5 W/m 10,5 km/h (2 Bft) 100,00 %
04.10.2017 02:24 10,9 C 10,6 C 9,4 C 88 % 0 lf 1023,0 hPa 0,0 l/m 0 min 0 min 5 W/m 14,6 km/h (3 Bft) 100,00 %
04.10.2017 02:26 10,9 C 10,6 C 9,4 C 88 % 0 lf 1022,9 hPa 0,0 l/m 0 min 0 min 0 W/m 14,6 km/h (3 Bft) 97,87 %
04.10.2017 02:28 10,9 C 10,6 C 8,9 C 88 % 0 lf 1022,9 hPa 0,0 l/m 0 min 0 min 0 W/m 10,5 km/h (2 Bft) 93,62 %
04.10.2017 02:30 10,9 C 10,0 C 8,9 C 88 % 0 lf 1022,9 hPa 0,0 l/m 0 min 0 min 0 W/m 12,6 km/h (3 Bft) 97,87 %
04.10.2017 02:32 10,9 C 10,0 C 8,9 C 88 % 0 lf 1023,0 hPa 0,0 l/m 0 min 0 min 0 W/m 16,7 km/h (3 Bft) 97,83 %
04.10.2017 02:34 10,8 C 10,0 C 8,9 C 88 % 0 lf 1023,0 hPa 0,0 l/m 0 min 0 min 0 W/m 12,6 km/h (3 Bft) 97,87 %
04.10.2017 02:36 10,8 C 10,0 C 8,9 C 89 % 0 lf 1023,0 hPa 0,0 l/m 0 min 0 min 0 W/m 12,6 km/h (3 Bft) 93,62 %
04.10.2017 02:38 10,8 C 10,0 C 9,4 C 89 % 0 lf 1022,9 hPa 0,0 l/m 0 min 0 min 0 W/m 10,5 km/h (2 Bft) 95,74 %
04.10.2017 02:40 10,8 C 10,0 C 8,9 C 89 % 0 lf 1022,8 hPa 0,0 l/m 0 min 0 min 0 W/m 12,6 km/h (3 Bft) 95,74 %
04.10.2017 02:42 10,8 C 10,0 C 8,9 C 89 % 0 lf 1022,9 hPa 0,0 l/m 0 min 0 min 0 W/m 12,6 km/h (3 Bft) 97,87 %
04.10.2017 02:44 10,8 C 10,0 C 8,9 C 89 % 0 lf 1022,8 hPa 0,0 l/m 0 min 0 min 0 W/m 10,5 km/h (2 Bft) 97,83 %
04.10.2017 02:46 10,7 C 10,0 C 8,9 C 89 % 0 lf 1022,8 hPa 0,0 l/m 0 min 0 min 0 W/m 10,5 km/h (2 Bft) 95,74 %
04.10.2017 02:48 10,7 C 10,0 C 8,9 C 89 % 0 lf 1022,9 hPa 0,0 l/m 0 min 0 min 0 W/m 14,6 km/h (3 Bft) 97,87 %
04.10.2017 02:50 10,7 C 10,0 C 8,9 C 89 % 0 lf 1022,8 hPa 0,0 l/m 0 min 0 min 0 W/m 14,6 km/h (3 Bft) 95,74 %
04.10.2017 02:52 10,7 C 10,0 C 8,9 C 89 % 0 lf 1022,8 hPa 0,0 l/m 0 min 0 min 0 W/m 14,6 km/h (3 Bft) 97,87 %
04.10.2017 02:54 10,7 C 10,0 C 8,9 C 89 % 0 lf 1022,8 hPa 0,0 l/m 0 min 0 min 0 W/m 16,7 km/h (3 Bft) 93,48 %
04.10.2017 02:56 10,6 C 10,0 C 8,9 C 89 % 0 lf 1022,8 hPa 0,0 l/m 0 min 0 min 0 W/m 8,4 km/h (2 Bft) 100,00 %
04.10.2017 02:58 10,6 C 10,0 C 8,9 C 89 % 0 lf 1022,8 hPa 0,0 l/m 0 min 0 min 0 W/m 12,6 km/h (3 Bft) 95,65 %
04.10.2017 03:00 10,6 C 10,0 C 8,9 C 89 % 0 lf 1022,8 hPa 0,0 l/m 0 min 0 min 0 W/m 12,6 km/h (3 Bft) 100,00 %
04.10.2017 03:02 10,6 C 10,0 C 8,9 C 89 % 0 lf 1022,8 hPa 0,0 l/m 0 min 0 min 0 W/m 12,6 km/h (3 Bft) 97,87 %
04.10.2017 03:04 10,6 C 10,0 C 8,9 C 89 % 0 lf 1022,7 hPa 0,0 l/m 0 min 0 min 0 W/m 12,6 km/h (3 Bft) 100,00 %
04.10.2017 03:06 10,6 C 10,0 C 9,4 C 89 % 0 lf 1022,7 hPa 0,0 l/m 0 min 0 min 0 W/m 10,5 km/h (2 Bft) 100,00 %
04.10.2017 03:08 10,6 C 10,0 C 9,4 C 89 % 0 lf 1022,7 hPa 0,0 l/m 0 min 0 min 0 W/m 10,5 km/h (2 Bft) 100,00 %
04.10.2017 03:10 10,5 C 10,0 C 9,4 C 89 % 0 lf 1022,7 hPa 0,0 l/m 0 min 0 min 0 W/m 14,6 km/h (3 Bft) 100,00 %
04.10.2017 03:12 10,5 C 10,0 C 9,4 C 90 % 0 lf 1022,7 hPa 0,0 l/m 0 min 0 min 0 W/m 10,5 km/h (2 Bft) 97,87 %
04.10.2017 03:14 10,5 C 10,0 C 9,4 C 90 % 0 lf 1022,7 hPa 0,0 l/m 0 min 0 min 0 W/m 10,5 km/h (2 Bft) 100,00 %
04.10.2017 03:16 10,5 C 10,6 C 9,4 C 90 % 0 lf 1022,7 hPa 0,0 l/m 0 min 0 min 0 W/m 14,6 km/h (3 Bft) 100,00 %
04.10.2017 03:18 10,5 C 10,6 C 9,4 C 89 % 0 lf 1022,6 hPa 0,0 l/m 0 min 0 min 5 W/m 14,6 km/h (3 Bft) 97,83 %
04.10.2017 03:20 10,5 C 10,6 C 9,4 C 90 % 0 lf 1022,5 hPa 0,0 l/m 0 min 0 min 0 W/m 6,3 km/h (2 Bft) 95,74 %
04.10.2017 03:22 10,5 C 10,6 C 9,4 C 90 % 0 lf 1022,5 hPa 0,0 l/m 0 min 0 min 0 W/m 10,5 km/h (2 Bft) 97,87 %
04.10.2017 03:24 10,5 C 10,6 C 9,4 C 90 % 0 lf 1022,6 hPa 0,0 l/m 0 min 0 min 0 W/m 16,7 km/h (3 Bft) 97,87 %
04.10.2017 03:26 10,5 C 10,6 C 9,4 C 90 % 0 lf 1022,4 hPa 0,0 l/m 0 min 0 min 0 W/m 12,6 km/h (3 Bft) 97,87 %
04.10.2017 03:28 10,5 C 10,6 C 9,4 C 90 % 0 lf 1022,4 hPa 0,0 l/m 0 min 0 min 0 W/m 12,6 km/h (3 Bft) 95,74 %
04.10.2017 03:30 10,5 C 10,6 C 9,4 C 90 % 0 lf 1022,5 hPa 0,0 l/m 0 min 0 min 0 W/m 14,6 km/h (3 Bft) 97,83 %
04.10.2017 03:32 10,5 C 10,0 C 9,4 C 90 % 0 lf 1022,4 hPa 0,0 l/m 0 min 0 min 0 W/m 8,4 km/h (2 Bft) 95,74 %
04.10.2017 03:34 10,5 C 10,0 C 9,4 C 90 % 0 lf 1022,4 hPa 0,0 l/m 0 min 0 min 0 W/m 14,6 km/h (3 Bft) 95,74 %
04.10.2017 03:36 10,5 C 10,0 C 9,4 C 90 % 0 lf 1022,4 hPa 0,0 l/m 0 min 0 min 0 W/m 14,6 km/h (3 Bft) 97,87 %
04.10.2017 03:38 10,5 C 10,6 C 9,4 C 90 % 0 lf 1022,4 hPa 0,0 l/m 0 min 0 min 0 W/m 20,9 km/h (4 Bft) 97,87 %
04.10.2017 03:40 10,5 C 10,6 C 9,4 C 90 % 0 lf 1022,3 hPa 0,0 l/m 0 min 0 min 0 W/m 14,6 km/h (3 Bft) 95,74 %
04.10.2017 03:42 10,5 C 10,6 C 9,4 C 90 % 0 lf 1022,4 hPa 0,0 l/m 0 min 0 min 0 W/m 12,6 km/h (3 Bft) 97,83 %
04.10.2017 03:44 10,5 C 10,6 C 9,4 C 90 % 0 lf 1022,4 hPa 0,0 l/m 0 min 0 min 0 W/m 14,6 km/h (3 Bft) 95,74 %
04.10.2017 03:46 10,5 C 10,6 C 9,4 C 90 % 0 lf 1022,3 hPa 0,0 l/m 0 min 0 min 0 W/m 10,5 km/h (2 Bft) 95,74 %
04.10.2017 03:48 10,5 C 10,6 C 9,4 C 90 % 0 lf 1022,3 hPa 0,0 l/m 0 min 0 min 0 W/m 12,6 km/h (3 Bft) 95,74 %
04.10.2017 03:50 10,5 C 10,6 C 9,4 C 90 % 0 lf 1022,4 hPa 0,0 l/m 0 min 0 min 0 W/m 14,6 km/h (3 Bft) 95,74 %
04.10.2017 03:52 10,5 C 10,6 C 9,4 C 90 % 0 lf 1022,4 hPa 0,0 l/m 0 min 0 min 0 W/m 16,7 km/h (3 Bft) 97,87 %
04.10.2017 03:54 10,5 C 10,6 C 9,4 C 90 % 0 lf 1022,4 hPa 0,0 l/m 0 min 0 min 0 W/m 14,6 km/h (3 Bft) 93,48 %
04.10.2017 03:56 10,5 C 10,6 C 9,4 C 90 % 0 lf 1022,4 hPa 0,0 l/m 0 min 0 min 0 W/m 16,7 km/h (3 Bft) 93,62 %
04.10.2017 03:58 10,5 C 10,6 C 9,4 C 90 % 0 lf 1022,4 hPa 0,0 l/m 0 min 0 min 0 W/m 14,6 km/h (3 Bft) 95,74 %
04.10.2017 04:00 10,5 C 10,6 C 9,4 C 90 % 0 lf 1022,4 hPa 0,0 l/m 0 min 0 min 0 W/m 12,6 km/h (3 Bft) 95,74 %
04.10.2017 04:05 10,5 C 10,6 C 9,4 C 90 % 0 lf 1022,4 hPa 0,0 l/m 0 min 0 min 0 W/m 12,6 km/h (3 Bft) 100,00 %
04.10.2017 04:06 10,5 C 10,6 C 9,4 C 90 % 0 lf 1022,4 hPa 0,0 l/m 0 min 0 min 0 W/m 12,6 km/h (3 Bft) 90,91 %
04.10.2017 04:08 10,5 C 10,6 C 9,4 C 90 % 0 lf 1022,4 hPa 0,0 l/m 0 min 0 min 0 W/m 14,6 km/h (3 Bft) 97,87 %
04.10.2017 04:10 10,6 C 10,6 C 9,4 C 90 % 0 lf 1022,4 hPa 0,0 l/m 0 min 0 min 0 W/m 14,6 km/h (3 Bft) 97,87 %
04.10.2017 04:12 10,6 C 10,6 C 9,4 C 90 % 0 lf 1022,5 hPa 0,0 l/m 0 min 0 min 0 W/m 14,6 km/h (3 Bft) 95,74 %
04.10.2017 04:14 10,6 C 10,6 C 9,4 C 90 % 0 lf 1022,4 hPa 0,0 l/m 0 min 0 min 0 W/m 8,4 km/h (2 Bft) 93,62 %
04.10.2017 04:16 10,6 C 10,6 C 9,4 C 90 % 0 lf 1022,3 hPa 0,0 l/m 0 min 0 min 0 W/m 10,5 km/h (2 Bft) 97,83 %
04.10.2017 04:18 10,6 C 10,6 C 9,4 C 90 % 0 lf 1022,2 hPa 0,0 l/m 0 min 0 min 0 W/m 14,6 km/h (3 Bft) 95,74 %
04.10.2017 04:20 10,6 C 10,6 C 9,4 C 90 % 0 lf 1022,3 hPa 0,0 l/m 0 min 0 min 0 W/m 10,5 km/h (2 Bft) 96,61 %
04.10.2017 04:22 10,6 C 10,6 C 9,4 C 90 % 0 lf 1022,2 hPa 0,0 l/m 0 min 0 min 0 W/m 14,6 km/h (3 Bft) 91,43 %
04.10.2017 04:24 10,6 C 10,6 C 9,4 C 90 % 0 lf 1022,2 hPa 0,0 l/m 0 min 0 min 0 W/m 12,6 km/h (3 Bft) 97,87 %
04.10.2017 04:26 10,6 C 10,6 C 9,4 C 90 % 0 lf 1022,2 hPa 0,0 l/m 0 min 0 min 0 W/m 14,6 km/h (3 Bft) 91,49 %
04.10.2017 04:28 10,6 C 10,6 C 9,4 C 90 % 0 lf 1022,2 hPa 0,0 l/m 0 min 0 min 0 W/m 10,5 km/h (2 Bft) 95,65 %
04.10.2017 04:30 10,6 C 10,6 C 9,4 C 90 % 0 lf 1022,2 hPa 0,0 l/m 0 min 0 min 0 W/m 12,6 km/h (3 Bft) 93,62 %
04.10.2017 04:32 10,6 C 10,6 C 9,4 C 90 % 0 lf 1022,2 hPa 0,0 l/m 0 min 0 min 0 W/m 14,6 km/h (3 Bft) 93,62 %
04.10.2017 04:34 10,6 C 10,6 C 9,4 C 90 % 0 lf 1022,2 hPa 0,0 l/m 0 min 0 min 0 W/m 12,6 km/h (3 Bft) 95,74 %
04.10.2017 04:36 10,6 C 10,6 C 9,4 C 90 % 0 lf 1022,2 hPa 0,0 l/m 0 min 0 min 0 W/m 12,6 km/h (3 Bft) 91,49 %
04.10.2017 04:38 10,6 C 10,6 C 9,4 C 90 % 0 lf 1022,2 hPa 0,0 l/m 0 min 0 min 0 W/m 14,6 km/h (3 Bft) 95,74 %
04.10.2017 04:40 10,6 C 10,6 C 9,4 C 90 % 0 lf 1022,2 hPa 0,0 l/m 0 min 0 min 0 W/m 16,7 km/h (3 Bft) 95,65 %
04.10.2017 04:42 10,6 C 10,6 C 9,4 C 90 % 0 lf 1022,1 hPa 0,0 l/m 0 min 0 min 0 W/m 14,6 km/h (3 Bft) 93,62 %
04.10.2017 04:44 10,6 C 10,6 C 9,4 C 90 % 0 lf 1022,2 hPa 0,0 l/m 0 min 0 min 0 W/m 14,6 km/h (3 Bft) 95,74 %
04.10.2017 04:46 10,6 C 10,6 C 9,4 C 90 % 0 lf 1022,2 hPa 0,0 l/m 0 min 0 min 0 W/m 14,6 km/h (3 Bft) 93,62 %
04.10.2017 04:48 10,6 C 10,6 C 9,4 C 90 % 0 lf 1022,1 hPa 0,0 l/m 0 min 0 min 0 W/m 12,6 km/h (3 Bft) 95,74 %
04.10.2017 04:50 10,6 C 10,6 C 9,4 C 90 % 0 lf 1022,1 hPa 0,0 l/m 0 min 0 min 0 W/m 16,7 km/h (3 Bft) 98,28 %
04.10.2017 04:52 10,6 C 10,6 C 9,4 C 90 % 0 lf 1022,1 hPa 0,0 l/m 0 min 0 min 0 W/m 14,6 km/h (3 Bft) 97,14 %
04.10.2017 04:54 10,6 C 10,6 C 9,4 C 90 % 0 lf 1022,1 hPa 0,0 l/m 0 min 0 min 0 W/m 16,7 km/h (3 Bft) 97,87 %
04.10.2017 04:56 10,6 C 10,6 C 9,4 C 90 % 0 lf 1022,1 hPa 0,0 l/m 0 min 0 min 0 W/m 14,6 km/h (3 Bft) 97,87 %
04.10.2017 04:58 10,6 C 10,6 C 9,4 C 90 % 0 lf 1022,1 hPa 0,0 l/m 0 min 0 min 0 W/m 8,4 km/h (2 Bft) 97,87 %
04.10.2017 05:00 10,6 C 10,6 C 9,4 C 90 % 0 lf 1022,0 hPa 0,0 l/m 0 min 0 min 0 W/m 14,6 km/h (3 Bft) 97,87 %
04.10.2017 05:02 10,6 C 10,6 C 9,4 C 90 % 0 lf 1022,0 hPa 0,0 l/m 0 min 0 min 0 W/m 10,5 km/h (2 Bft) 97,87 %
04.10.2017 05:04 10,6 C 10,0 C 9,4 C 90 % 0 lf 1022,0 hPa 0,0 l/m 0 min 0 min 0 W/m 12,6 km/h (3 Bft) 97,83 %
04.10.2017 05:06 10,6 C 10,0 C 9,4 C 90 % 0 lf 1022,0 hPa 0,0 l/m 0 min 0 min 0 W/m 10,5 km/h (2 Bft) 93,62 %
04.10.2017 05:08 10,6 C 10,0 C 9,4 C 90 % 0 lf 1022,0 hPa 0,0 l/m 0 min 0 min 0 W/m 14,6 km/h (3 Bft) 97,87 %
04.10.2017 05:10 10,6 C 10,0 C 9,4 C 90 % 0 lf 1021,9 hPa 0,0 l/m 0 min 0 min 0 W/m 12,6 km/h (3 Bft) 97,87 %
04.10.2017 05:12 10,6 C 10,6 C 9,4 C 90 % 0 lf 1021,9 hPa 0,0 l/m 0 min 0 min 0 W/m 14,6 km/h (3 Bft) 97,87 %
04.10.2017 05:14 10,6 C 10,0 C 9,4 C 90 % 0 lf 1021,9 hPa 0,0 l/m 0 min 0 min 0 W/m 14,6 km/h (3 Bft) 95,74 %
04.10.2017 05:16 10,6 C 10,6 C 9,4 C 90 % 0 lf 1021,9 hPa 0,0 l/m 0 min 0 min 0 W/m 12,6 km/h (3 Bft) 97,83 %
04.10.2017 05:18 10,6 C 10,0 C 9,4 C 90 % 0 lf 1021,9 hPa 0,0 l/m 0 min 0 min 0 W/m 16,7 km/h (3 Bft) 97,87 %
04.10.2017 05:20 10,6 C 10,0 C 9,4 C 90 % 0 lf 1021,9 hPa 0,0 l/m 0 min 0 min 0 W/m 12,6 km/h (3 Bft) 96,61 %
04.10.2017 05:22 10,5 C 10,0 C 9,4 C 90 % 0 lf 1022,0 hPa 0,0 l/m 0 min 0 min 0 W/m 14,6 km/h (3 Bft) 94,29 %
04.10.2017 05:24 10,6 C 10,0 C 9,4 C 90 % 0 lf 1021,9 hPa 0,0 l/m 0 min 0 min 0 W/m 12,6 km/h (3 Bft) 95,74 %
04.10.2017 05:26 10,5 C 10,0 C 9,4 C 90 % 0 lf 1022,0 hPa 0,0 l/m 0 min 0 min 0 W/m 16,7 km/h (3 Bft) 97,87 %
04.10.2017 05:28 10,5 C 10,0 C 9,4 C 90 % 0 lf 1022,0 hPa 0,0 l/m 0 min 0 min 0 W/m 16,7 km/h (3 Bft) 97,83 %
04.10.2017 05:30 10,5 C 10,0 C 9,4 C 90 % 0 lf 1021,9 hPa 0,0 l/m 0 min 0 min 0 W/m 18,8 km/h (3 Bft) 97,87 %
04.10.2017 05:32 10,5 C 10,0 C 9,4 C 90 % 0 lf 1021,9 hPa 0,0 l/m 0 min 0 min 0 W/m 14,6 km/h (3 Bft) 91,49 %
04.10.2017 05:34 10,5 C 10,0 C 9,4 C 90 % 0 lf 1021,9 hPa 0,0 l/m 0 min 0 min 0 W/m 14,6 km/h (3 Bft) 97,87 %
04.10.2017 05:35 10,5 C 10,0 C 9,4 C 90 % 0 lf 1021,9 hPa 0,0 l/m 0 min 0 min 0 W/m 16,7 km/h (3 Bft) 99,12 %
04.10.2017 05:40 10,5 C 10,0 C 9,4 C 90 % 0 lf 1022,0 hPa 0,0 l/m 0 min 0 min 0 W/m 18,8 km/h (3 Bft) 100,00 %
04.10.2017 05:42 10,5 C 10,0 C 9,4 C 90 % 0 lf 1022,0 hPa 0,0 l/m 0 min 0 min 0 W/m 14,6 km/h (3 Bft) 97,87 %
04.10.2017 05:44 10,5 C 10,0 C 9,4 C 90 % 0 lf 1022,0 hPa 0,0 l/m 0 min 0 min 0 W/m 14,6 km/h (3 Bft) 100,00 %
04.10.2017 05:46 10,5 C 10,0 C 9,4 C 90 % 0 lf 1022,0 hPa 0,0 l/m 0 min 0 min 0 W/m 14,6 km/h (3 Bft) 95,65 %
04.10.2017 05:48 10,5 C 10,0 C 9,4 C 90 % 0 lf 1022,0 hPa 0,0 l/m 0 min 0 min 0 W/m 14,6 km/h (3 Bft) 97,87 %
04.10.2017 05:50 10,5 C 10,0 C 9,4 C 90 % 0 lf 1022,0 hPa 0,0 l/m 0 min 0 min 0 W/m 14,6 km/h (3 Bft) 100,00 %
04.10.2017 05:52 10,5 C 10,0 C 9,4 C 90 % 0 lf 1022,0 hPa 0,0 l/m 0 min 0 min 0 W/m 18,8 km/h (3 Bft) 97,87 %
04.10.2017 05:54 10,5 C 10,0 C 9,4 C 90 % 0 lf 1021,9 hPa 0,0 l/m 0 min 0 min 0 W/m 16,7 km/h (3 Bft) 97,87 %
04.10.2017 05:56 10,4 C 10,0 C 9,4 C 90 % 0 lf 1022,0 hPa 0,0 l/m 0 min 0 min 0 W/m 12,6 km/h (3 Bft) 100,00 %
04.10.2017 05:58 10,5 C 10,0 C 9,4 C 90 % 0 lf 1021,9 hPa 0,0 l/m 0 min 0 min 0 W/m 18,8 km/h (3 Bft) 97,83 %
04.10.2017 06:00 10,4 C 10,0 C 9,4 C 90 % 0 lf 1022,0 hPa 0,0 l/m 0 min 0 min 0 W/m 14,6 km/h (3 Bft) 100,00 %
04.10.2017 06:02 10,5 C 10,0 C 9,4 C 90 % 0 lf 1021,9 hPa 0,0 l/m 0 min 0 min 0 W/m 14,6 km/h (3 Bft) 97,87 %
04.10.2017 06:04 10,4 C 10,0 C 9,4 C 90 % 0 lf 1021,9 hPa 0,0 l/m 0 min 0 min 0 W/m 12,6 km/h (3 Bft) 93,62 %
04.10.2017 06:06 10,5 C 10,0 C 9,4 C 90 % 0 lf 1021,8 hPa 0,0 l/m 0 min 0 min 0 W/m 16,7 km/h (3 Bft) 97,87 %
04.10.2017 06:10 10,4 C 10,0 C 9,4 C 90 % 0 lf 1021,7 hPa 0,0 l/m 0 min 0 min 0 W/m 18,8 km/h (3 Bft) 98,78 %
04.10.2017 06:12 10,4 C 10,0 C 9,4 C 90 % 0 lf 1021,7 hPa 0,0 l/m 0 min 0 min 0 W/m 16,7 km/h (3 Bft) 95,74 %
04.10.2017 06:14 10,4 C 10,0 C 9,4 C 91 % 0 lf 1021,6 hPa 0,0 l/m 0 min 0 min 0 W/m 12,6 km/h (3 Bft) 95,65 %
04.10.2017 06:16 10,4 C 10,0 C 9,4 C 91 % 0 lf 1021,7 hPa 0,0 l/m 0 min 0 min 0 W/m 12,6 km/h (3 Bft) 95,74 %
04.10.2017 06:18 10,4 C 10,0 C 9,4 C 91 % 0 lf 1021,6 hPa 0,0 l/m 0 min 0 min 0 W/m 16,7 km/h (3 Bft) 95,74 %
04.10.2017 06:20 10,4 C 10,0 C 9,4 C 91 % 0 lf 1021,7 hPa 0,0 l/m 0 min 0 min 0 W/m 16,7 km/h (3 Bft) 95,74 %
04.10.2017 06:22 10,4 C 10,0 C 9,4 C 91 % 0 lf 1021,7 hPa 0,0 l/m 0 min 0 min 0 W/m 10,5 km/h (2 Bft) 91,49 %
04.10.2017 06:24 10,4 C 10,0 C 9,4 C 91 % 0 lf 1021,6 hPa 0,0 l/m 0 min 0 min 0 W/m 16,7 km/h (3 Bft) 95,65 %
04.10.2017 06:26 10,4 C 10,0 C 9,4 C 91 % 0 lf 1021,6 hPa 0,0 l/m 0 min 0 min 0 W/m 10,5 km/h (2 Bft) 95,74 %
04.10.2017 06:28 10,4 C 10,0 C 9,4 C 91 % 0 lf 1021,7 hPa 0,0 l/m 0 min 0 min 0 W/m 14,6 km/h (3 Bft) 95,74 %
04.10.2017 06:30 10,4 C 10,0 C 9,4 C 91 % 0 lf 1021,6 hPa 0,0 l/m 0 min 0 min 0 W/m 18,8 km/h (3 Bft) 93,62 %
04.10.2017 06:32 10,4 C 10,0 C 9,4 C 91 % 0 lf 1021,6 hPa 0,0 l/m 0 min 0 min 0 W/m 14,6 km/h (3 Bft) 95,74 %
04.10.2017 06:34 10,4 C 10,0 C 9,4 C 91 % 0 lf 1021,6 hPa 0,0 l/m 0 min 0 min 0 W/m 14,6 km/h (3 Bft) 91,49 %
04.10.2017 06:36 10,4 C 10,0 C 9,4 C 91 % 0 lf 1021,6 hPa 0,0 l/m 0 min 0 min 0 W/m 20,9 km/h (4 Bft) 95,65 %
04.10.2017 06:38 10,4 C 10,0 C 9,4 C 91 % 0 lf 1021,5 hPa 0,0 l/m 0 min 0 min 0 W/m 14,6 km/h (3 Bft) 89,36 %
04.10.2017 06:40 10,4 C 10,0 C 8,9 C 91 % 0 lf 1021,6 hPa 0,0 l/m 0 min 0 min 0 W/m 14,6 km/h (3 Bft) 93,62 %
04.10.2017 06:42 10,4 C 10,0 C 8,9 C 91 % 0 lf 1021,6 hPa 0,0 l/m 0 min 0 min 0 W/m 12,6 km/h (3 Bft) 95,74 %
04.10.2017 06:44 10,4 C 10,0 C 8,9 C 91 % 0 lf 1021,5 hPa 0,0 l/m 0 min 0 min 0 W/m 14,6 km/h (3 Bft) 95,74 %
04.10.2017 06:46 10,4 C 10,0 C 8,9 C 91 % 0 lf 1021,5 hPa 0,0 l/m 0 min 0 min 0 W/m 14,6 km/h (3 Bft) 93,62 %
04.10.2017 06:48 10,3 C 10,0 C 8,9 C 90 % 0 lf 1021,5 hPa 0,0 l/m 0 min 0 min 0 W/m 12,6 km/h (3 Bft) 95,65 %
04.10.2017 06:50 10,3 C 10,0 C 8,9 C 91 % 0 lf 1021,5 hPa 0,0 l/m 0 min 0 min 0 W/m 12,6 km/h (3 Bft) 93,62 %
04.10.2017 06:52 10,3 C 10,0 C 8,9 C 91 % 0 lf 1021,4 hPa 0,0 l/m 0 min 0 min 0 W/m 23,0 km/h (4 Bft) 95,83 %
04.10.2017 06:54 10,3 C 10,0 C 8,9 C 91 % 0 lf 1021,4 hPa 0,0 l/m 0 min 0 min 0 W/m 14,6 km/h (3 Bft) 93,62 %
04.10.2017 06:56 10,3 C 10,0 C 8,9 C 91 % 0 lf 1021,4 hPa 0,0 l/m 0 min 0 min 0 W/m 20,9 km/h (4 Bft) 93,62 %
04.10.2017 06:58 10,3 C 10,0 C 8,9 C 91 % 0 lf 1021,5 hPa 0,0 l/m 0 min 0 min 0 W/m 14,6 km/h (3 Bft) 97,87 %
04.10.2017 07:00 10,3 C 10,0 C 8,9 C 91 % 0 lf 1021,4 hPa 0,0 l/m 0 min 0 min 0 W/m 16,7 km/h (3 Bft) 97,83 %
04.10.2017 07:02 10,3 C 10,0 C 8,9 C 91 % 0 lf 1021,5 hPa 0,0 l/m 0 min 0 min 0 W/m 20,9 km/h (4 Bft) 95,74 %
04.10.2017 07:04 10,3 C 10,0 C 8,9 C 91 % 0 lf 1021,5 hPa 0,0 l/m 0 min 0 min 0 W/m 20,9 km/h (4 Bft) 93,62 %
04.10.2017 07:06 10,3 C 10,0 C 8,9 C 91 % 0 lf 1021,5 hPa 0,0 l/m 0 min 0 min 0 W/m 18,8 km/h (3 Bft) 97,87 %
04.10.2017 07:08 10,3 C 10,0 C 8,9 C 91 % 0 lf 1021,5 hPa 0,0 l/m 0 min 0 min 0 W/m 14,6 km/h (3 Bft) 97,87 %
04.10.2017 07:10 10,3 C 10,0 C 8,9 C 91 % 0 lf 1021,5 hPa 0,0 l/m 0 min 0 min 0 W/m 18,8 km/h (3 Bft) 97,87 %
04.10.2017 07:12 10,3 C 10,0 C 8,9 C 91 % 0 lf 1021,5 hPa 0,0 l/m 0 min 0 min 0 W/m 14,6 km/h (3 Bft) 95,65 %
04.10.2017 07:14 10,3 C 10,0 C 8,9 C 91 % 0 lf 1021,5 hPa 0,0 l/m 0 min 0 min 0 W/m 12,6 km/h (3 Bft) 95,74 %
04.10.2017 07:16 10,2 C 10,0 C 8,9 C 91 % 0 lf 1021,5 hPa 0,0 l/m 0 min 0 min 0 W/m 14,6 km/h (3 Bft) 95,74 %
04.10.2017 07:18 10,2 C 10,0 C 8,9 C 91 % 0 lf 1021,5 hPa 0,0 l/m 0 min 0 min 0 W/m 10,5 km/h (2 Bft) 97,87 %
04.10.2017 07:20 10,2 C 10,0 C 8,9 C 91 % 0 lf 1021,5 hPa 0,0 l/m 0 min 0 min 0 W/m 8,4 km/h (2 Bft) 96,61 %
04.10.2017 07:22 10,2 C 10,0 C 8,9 C 91 % 0 lf 1021,5 hPa 0,0 l/m 0 min 0 min 0 W/m 14,6 km/h (3 Bft) 97,14 %
04.10.2017 07:24 10,2 C 10,0 C 8,9 C 91 % 0 lf 1021,5 hPa 0,0 l/m 0 min 0 min 0 W/m 12,6 km/h (3 Bft) 97,83 %
04.10.2017 07:26 10,2 C 10,0 C 8,9 C 91 % 0 lf 1021,5 hPa 0,0 l/m 0 min 0 min 12 W/m 16,7 km/h (3 Bft) 100,00 %
04.10.2017 07:28 10,2 C 10,0 C 8,9 C 91 % 0 lf 1021,5 hPa 0,0 l/m 0 min 0 min 12 W/m 14,6 km/h (3 Bft) 100,00 %
04.10.2017 07:30 10,2 C 10,0 C 8,9 C 91 % 0 lf 1021,5 hPa 0,0 l/m 0 min 0 min 12 W/m 14,6 km/h (3 Bft) 95,74 %
04.10.2017 07:32 10,2 C 10,0 C 8,9 C 91 % 0 lf 1021,5 hPa 0,0 l/m 0 min 0 min 12 W/m 12,6 km/h (3 Bft) 100,00 %
04.10.2017 07:34 10,2 C 10,0 C 8,9 C 91 % 0 lf 1021,5 hPa 0,0 l/m 0 min 0 min 14 W/m 16,7 km/h (3 Bft) 100,00 %
04.10.2017 07:36 10,2 C 10,0 C 8,9 C 91 % 0 lf 1021,5 hPa 0,0 l/m 0 min 0 min 14 W/m 14,6 km/h (3 Bft) 100,00 %
04.10.2017 07:38 10,2 C 10,0 C 8,9 C 91 % 0 lf 1021,5 hPa 0,0 l/m 0 min 0 min 14 W/m 14,6 km/h (3 Bft) 100,00 %
04.10.2017 07:40 10,1 C 10,0 C 8,9 C 91 % 0 lf 1021,5 hPa 0,0 l/m 0 min 0 min 14 W/m 16,7 km/h (3 Bft) 97,87 %
04.10.2017 07:42 10,1 C 10,0 C 8,9 C 91 % 0 lf 1021,5 hPa 0,0 l/m 0 min 0 min 14 W/m 20,9 km/h (4 Bft) 97,62 %
04.10.2017 07:44 10,1 C 10,0 C 8,9 C 91 % 0 lf 1021,6 hPa 0,0 l/m 0 min 0 min 15 W/m 18,8 km/h (3 Bft) 100,00 %
04.10.2017 07:46 10,1 C 10,0 C 8,9 C 91 % 0 lf 1021,5 hPa 0,0 l/m 0 min 0 min 17 W/m 14,6 km/h (3 Bft) 97,83 %
04.10.2017 07:48 10,1 C 10,0 C 8,9 C 91 % 0 lf 1021,6 hPa 0,0 l/m 0 min 0 min 18 W/m 14,6 km/h (3 Bft) 100,00 %
04.10.2017 07:50 10,1 C 10,0 C 8,9 C 91 % 0 lf 1021,6 hPa 0,0 l/m 0 min 0 min 14 W/m 14,6 km/h (3 Bft) 100,00 %
04.10.2017 07:52 10,1 C 10,0 C 8,9 C 91 % 0 lf 1021,6 hPa 0,0 l/m 2 min 0 min 22 W/m 14,6 km/h (3 Bft) 100,00 %
04.10.2017 07:54 10,1 C 10,0 C 8,9 C 91 % 0 lf 1021,5 hPa 0,0 l/m 2 min 0 min 25 W/m 14,6 km/h (3 Bft) 100,00 %
04.10.2017 07:56 10,1 C 10,0 C 8,9 C 91 % 0 lf 1021,6 hPa 0,0 l/m 2 min 0 min 26 W/m 16,7 km/h (3 Bft) 97,87 %
04.10.2017 07:58 10,1 C 10,0 C 8,9 C 91 % 0 lf 1021,6 hPa 0,0 l/m 2 min 0 min 26 W/m 14,6 km/h (3 Bft) 100,00 %
04.10.2017 08:00 10,1 C 10,0 C 8,9 C 91 % 0 lf 1021,6 hPa 0,0 l/m 2 min 0 min 26 W/m 14,6 km/h (3 Bft) 100,00 %
04.10.2017 08:02 10,1 C 10,0 C 8,9 C 91 % 0 lf 1021,6 hPa 0,0 l/m 2 min 0 min 28 W/m 14,6 km/h (3 Bft) 97,87 %
04.10.2017 08:04 10,1 C 10,0 C 8,9 C 91 % 0 lf 1021,6 hPa 0,0 l/m 2 min 0 min 31 W/m 12,6 km/h (3 Bft) 95,74 %
04.10.2017 08:06 10,1 C 10,0 C 8,9 C 91 % 0 lf 1021,5 hPa 0,0 l/m 2 min 0 min 33 W/m 10,5 km/h (2 Bft) 97,87 %
04.10.2017 08:08 10,1 C 10,0 C 8,9 C 91 % 0 lf 1021,5 hPa 0,0 l/m 2 min 0 min 35 W/m 14,6 km/h (3 Bft) 97,83 %
04.10.2017 08:10 10,1 C 10,0 C 8,9 C 92 % 0 lf 1021,4 hPa 0,0 l/m 2 min 0 min 42 W/m 16,7 km/h (3 Bft) 97,87 %
04.10.2017 08:12 10,1 C 10,0 C 8,9 C 92 % 0 lf 1021,3 hPa 0,0 l/m 2 min 0 min 51 W/m 16,7 km/h (3 Bft) 95,74 %
04.10.2017 08:14 10,1 C 10,0 C 8,9 C 92 % 0 lf 1021,5 hPa 0,0 l/m 2 min 0 min 59 W/m 14,6 km/h (3 Bft) 95,74 %
04.10.2017 08:16 10,1 C 10,0 C 8,9 C 92 % 0 lf 1021,5 hPa 0,0 l/m 2 min 0 min 58 W/m 12,6 km/h (3 Bft) 95,74 %
04.10.2017 08:18 10,1 C 10,6 C 9,4 C 92 % 0 lf 1021,5 hPa 0,0 l/m 2 min 0 min 66 W/m 12,6 km/h (3 Bft) 95,74 %
04.10.2017 08:20 10,1 C 10,6 C 9,4 C 92 % 0 lf 1021,6 hPa 0,0 l/m 2 min 0 min 74 W/m 12,6 km/h (3 Bft) 97,83 %
04.10.2017 08:22 10,1 C 10,6 C 9,4 C 92 % 0 lf 1021,5 hPa 0,0 l/m 2 min 0 min 76 W/m 14,6 km/h (3 Bft) 97,87 %
04.10.2017 08:24 10,1 C 10,6 C 9,4 C 92 % 0 lf 1021,4 hPa 0,0 l/m 2 min 0 min 77 W/m 16,7 km/h (3 Bft) 95,74 %
04.10.2017 08:26 10,2 C 11,1 C 9,4 C 92 % 0 lf 1021,5 hPa 0,0 l/m 2 min 0 min 73 W/m 18,8 km/h (3 Bft) 95,74 %
04.10.2017 08:28 10,2 C 11,1 C 9,4 C 92 % 0 lf 1021,4 hPa 0,0 l/m 2 min 0 min 66 W/m 16,7 km/h (3 Bft) 97,87 %
04.10.2017 08:30 10,2 C 10,6 C 9,4 C 92 % 0 lf 1021,4 hPa 0,0 l/m 2 min 0 min 66 W/m 14,6 km/h (3 Bft) 91,49 %
04.10.2017 08:32 10,2 C 10,6 C 9,4 C 92 % 0 lf 1021,4 hPa 0,0 l/m 2 min 0 min 68 W/m 18,8 km/h (3 Bft) 97,83 %
04.10.2017 08:34 10,2 C 10,6 C 9,4 C 92 % 0 lf 1021,4 hPa 0,0 l/m 2 min 0 min 70 W/m 18,8 km/h (3 Bft) 97,87 %
04.10.2017 08:36 10,2 C 10,6 C 9,4 C 92 % 0 lf 1021,4 hPa 0,0 l/m 2 min 0 min 74 W/m 16,7 km/h (3 Bft) 100,00 %
04.10.2017 08:38 10,2 C 10,6 C 9,4 C 92 % 0 lf 1021,4 hPa 0,0 l/m 2 min 0 min 77 W/m 16,7 km/h (3 Bft) 97,87 %
04.10.2017 08:40 10,3 C 10,6 C 9,4 C 92 % 0 lf 1021,4 hPa 0,0 l/m 2 min 0 min 83 W/m 18,8 km/h (3 Bft) 97,87 %
04.10.2017 08:42 10,3 C 10,6 C 9,4 C 92 % 0 lf 1021,5 hPa 0,0 l/m 2 min 0 min 82 W/m 18,8 km/h (3 Bft) 97,87 %
04.10.2017 08:44 10,3 C 10,6 C 9,4 C 92 % 0 lf 1021,4 hPa 0,0 l/m 2 min 0 min 79 W/m 20,9 km/h (4 Bft) 97,83 %
04.10.2017 08:46 10,3 C 10,6 C 9,4 C 92 % 0 lf 1021,3 hPa 0,0 l/m 2 min 0 min 80 W/m 18,8 km/h (3 Bft) 97,87 %
04.10.2017 08:48 10,3 C 11,1 C 9,4 C 92 % 0 lf 1021,2 hPa 0,0 l/m 0 min 0 min 81 W/m 12,6 km/h (3 Bft) 97,87 %
04.10.2017 08:50 10,3 C 10,6 C 9,4 C 91 % 0 lf 1021,2 hPa 0,0 l/m 0 min 0 min 81 W/m 16,7 km/h (3 Bft) 95,74 %
04.10.2017 08:52 10,3 C 10,6 C 9,4 C 91 % 0 lf 1021,1 hPa 0,0 l/m 0 min 0 min 81 W/m 23,0 km/h (4 Bft) 92,73 %
04.10.2017 08:54 10,3 C 11,1 C 10,0 C 91 % 0 lf 1021,1 hPa 0,0 l/m 0 min 0 min 84 W/m 16,7 km/h (3 Bft) 95,74 %
04.10.2017 08:56 10,4 C 11,1 C 10,0 C 91 % 0 lf 1021,1 hPa 0,0 l/m 0 min 0 min 80 W/m 14,6 km/h (3 Bft) 97,56 %
04.10.2017 08:58 10,4 C 11,1 C 10,0 C 91 % 0 lf 1021,0 hPa 0,0 l/m 0 min 0 min 77 W/m 20,9 km/h (4 Bft) 97,87 %
04.10.2017 09:00 10,4 C 11,1 C 10,0 C 91 % 0 lf 1021,1 hPa 0,0 l/m 0 min 0 min 77 W/m 16,7 km/h (3 Bft) 97,87 %
04.10.2017 09:02 10,4 C 10,6 C 10,0 C 91 % 0 lf 1021,1 hPa 0,0 l/m 0 min 0 min 84 W/m 14,6 km/h (3 Bft) 97,87 %
04.10.2017 09:04 10,4 C 11,1 C 10,0 C 91 % 0 lf 1021,1 hPa 0,0 l/m 0 min 0 min 92 W/m 12,6 km/h (3 Bft) 93,62 %
04.10.2017 09:06 10,4 C 11,1 C 10,0 C 91 % 0 lf 1021,2 hPa 0,0 l/m 0 min 0 min 95 W/m 18,8 km/h (3 Bft) 93,48 %
04.10.2017 09:08 10,4 C 11,1 C 10,0 C 91 % 0 lf 1021,2 hPa 0,0 l/m 0 min 0 min 94 W/m 20,9 km/h (4 Bft) 95,45 %
04.10.2017 09:10 10,5 C 11,1 C 10,0 C 91 % 0 lf 1021,2 hPa 0,0 l/m 0 min 0 min 94 W/m 20,9 km/h (4 Bft) 95,74 %
04.10.2017 09:12 10,5 C 11,1 C 10,0 C 91 % 0 lf 1021,3 hPa 0,0 l/m 0 min 0 min 99 W/m 23,0 km/h (4 Bft) 91,30 %
04.10.2017 09:14 10,5 C 11,1 C 10,0 C 91 % 0 lf 1021,2 hPa 0,0 l/m 0 min 0 min 104 W/m 18,8 km/h (3 Bft) 93,62 %
04.10.2017 09:16 10,6 C 11,1 C 10,0 C 91 % 0 lf 1021,4 hPa 0,0 l/m 0 min 0 min 100 W/m 10,5 km/h (2 Bft) 93,62 %
04.10.2017 09:18 10,6 C 11,1 C 10,6 C 91 % 0 lf 1021,4 hPa 0,0 l/m 0 min 0 min 91 W/m 14,6 km/h (3 Bft) 95,74 %
04.10.2017 09:20 10,6 C 11,1 C 10,6 C 91 % 0 lf 1021,4 hPa 0,0 l/m 0 min 0 min 85 W/m 14,6 km/h (3 Bft) 95,74 %
04.10.2017 09:22 10,6 C 11,1 C 10,6 C 91 % 0 lf 1021,4 hPa 0,0 l/m 0 min 0 min 95 W/m 14,6 km/h (3 Bft) 92,86 %
04.10.2017 09:24 10,6 C 11,7 C 10,6 C 91 % 0 lf 1021,4 hPa 0,0 l/m 0 min 0 min 103 W/m 16,7 km/h (3 Bft) 94,29 %
04.10.2017 09:26 10,7 C 11,7 C 10,6 C 91 % 0 lf 1021,2 hPa 0,0 l/m 0 min 0 min 108 W/m 12,6 km/h (3 Bft) 94,34 %
04.10.2017 09:28 10,7 C 11,7 C 10,6 C 90 % 0 lf 1021,3 hPa 0,0 l/m 0 min 0 min 117 W/m 12,6 km/h (3 Bft) 91,49 %
04.10.2017 09:30 10,7 C 11,7 C 10,6 C 90 % 0 lf 1021,3 hPa 0,0 l/m 0 min 0 min 129 W/m 16,7 km/h (3 Bft) 91,30 %
04.10.2017 09:32 10,7 C 11,7 C 10,6 C 91 % 0 lf 1021,2 hPa 0,0 l/m 2 min 0 min 147 W/m 18,8 km/h (3 Bft) 91,49 %
04.10.2017 09:34 10,8 C 11,7 C 11,1 C 91 % 0 lf 1021,2 hPa 0,0 l/m 2 min 0 min 153 W/m 16,7 km/h (3 Bft) 91,49 %
04.10.2017 09:36 10,8 C 12,2 C 11,1 C 91 % 0 lf 1021,2 hPa 0,0 l/m 2 min 0 min 152 W/m 18,8 km/h (3 Bft) 91,49 %
04.10.2017 09:38 10,8 C 11,7 C 11,1 C 90 % 0 lf 1021,2 hPa 0,0 l/m 2 min 0 min 142 W/m 20,9 km/h (4 Bft) 93,62 %
04.10.2017 09:40 10,9 C 12,2 C 11,1 C 90 % 0 lf 1021,2 hPa 0,0 l/m 0 min 0 min 135 W/m 16,7 km/h (3 Bft) 91,49 %
04.10.2017 09:42 10,9 C 12,2 C 11,1 C 90 % 0 lf 1021,2 hPa 0,0 l/m 0 min 0 min 135 W/m 16,7 km/h (3 Bft) 95,65 %
04.10.2017 09:44 10,9 C 12,2 C 11,1 C 90 % 0 lf 1021,2 hPa 0,0 l/m 0 min 0 min 138 W/m 12,6 km/h (3 Bft) 95,74 %
04.10.2017 09:46 11,0 C 12,2 C 11,1 C 90 % 0 lf 1021,2 hPa 0,0 l/m 0 min 0 min 136 W/m 20,9 km/h (4 Bft) 91,49 %
04.10.2017 09:48 11,0 C 12,2 C 11,1 C 90 % 0 lf 1021,2 hPa 0,0 l/m 0 min 0 min 133 W/m 23,0 km/h (4 Bft) 95,74 %
04.10.2017 09:50 11,1 C 12,2 C 11,1 C 90 % 0 lf 1021,2 hPa 0,0 l/m 0 min 0 min 136 W/m 25,1 km/h (4 Bft) 97,87 %
04.10.2017 09:52 11,1 C 12,2 C 11,1 C 90 % 0 lf 1021,2 hPa 0,0 l/m 0 min 0 min 145 W/m 20,9 km/h (4 Bft) 95,83 %
04.10.2017 09:54 11,1 C 12,2 C 11,1 C 90 % 0 lf 1021,3 hPa 0,0 l/m 0 min 0 min 150 W/m 16,7 km/h (3 Bft) 95,65 %
04.10.2017 09:56 11,1 C 12,2 C 11,7 C 89 % 0 lf 1021,3 hPa 0,0 l/m 0 min 0 min 157 W/m 20,9 km/h (4 Bft) 95,74 %
04.10.2017 09:58 11,2 C 12,8 C 11,7 C 89 % 0 lf 1021,3 hPa 0,0 l/m 2 min 0 min 171 W/m 20,9 km/h (4 Bft) 97,87 %
04.10.2017 10:00 11,2 C 12,8 C 11,7 C 89 % 0 lf 1021,2 hPa 0,0 l/m 2 min 0 min 183 W/m 16,7 km/h (3 Bft) 93,62 %
04.10.2017 10:02 11,3 C 12,8 C 11,7 C 89 % 0 lf 1021,2 hPa 0,0 l/m 2 min 0 min 185 W/m 20,9 km/h (4 Bft) 91,49 %
04.10.2017 10:04 11,3 C 12,8 C 11,7 C 89 % 0 lf 1021,1 hPa 0,0 l/m 2 min 0 min 181 W/m 16,7 km/h (3 Bft) 93,48 %
04.10.2017 10:06 11,4 C 12,8 C 11,7 C 89 % 0 lf 1021,1 hPa 0,0 l/m 0 min 0 min 167 W/m 18,8 km/h (3 Bft) 95,74 %
04.10.2017 10:08 11,4 C 12,8 C 11,7 C 88 % 0 lf 1021,0 hPa 0,0 l/m 0 min 0 min 158 W/m 20,9 km/h (4 Bft) 95,74 %
04.10.2017 10:10 11,4 C 12,8 C 11,7 C 88 % 0 lf 1021,0 hPa 0,0 l/m 0 min 0 min 160 W/m 18,8 km/h (3 Bft) 95,74 %
04.10.2017 10:12 11,5 C 12,8 C 11,7 C 88 % 0 lf 1021,1 hPa 0,0 l/m 0 min 0 min 166 W/m 16,7 km/h (3 Bft) 95,74 %
04.10.2017 10:14 11,5 C 12,8 C 12,2 C 88 % 0 lf 1021,2 hPa 0,0 l/m 0 min 0 min 172 W/m 14,6 km/h (3 Bft) 93,62 %
04.10.2017 10:16 11,6 C 13,3 C 12,2 C 88 % 0 lf 1021,1 hPa 0,0 l/m 2 min 0 min 183 W/m 18,8 km/h (3 Bft) 95,65 %
04.10.2017 10:18 11,6 C 13,3 C 12,2 C 88 % 0 lf 1021,2 hPa 0,0 l/m 2 min 0 min 189 W/m 18,8 km/h (3 Bft) 95,74 %
04.10.2017 10:20 11,7 C 12,8 C 12,2 C 88 % 0 lf 1021,2 hPa 0,0 l/m 2 min 0 min 190 W/m 14,6 km/h (3 Bft) 93,62 %
04.10.2017 10:22 11,7 C 13,3 C 12,2 C 88 % 0 lf 1021,2 hPa 0,0 l/m 0 min 0 min 187 W/m 12,6 km/h (3 Bft) 97,92 %
04.10.2017 10:24 11,7 C 13,3 C 12,2 C 87 % 0 lf 1021,2 hPa 0,0 l/m 0 min 0 min 186 W/m 14,6 km/h (3 Bft) 95,74 %
04.10.2017 10:26 11,8 C 13,3 C 12,2 C 87 % 0 lf 1021,2 hPa 0,0 l/m 0 min 0 min 182 W/m 18,8 km/h (3 Bft) 97,87 %
04.10.2017 10:28 11,8 C 12,8 C 12,2 C 87 % 0 lf 1021,3 hPa 0,0 l/m 0 min 0 min 177 W/m 20,9 km/h (4 Bft) 95,65 %
04.10.2017 10:30 11,9 C 13,3 C 12,2 C 87 % 0 lf 1021,4 hPa 0,0 l/m 0 min 0 min 177 W/m 14,6 km/h (3 Bft) 95,74 %
04.10.2017 10:32 11,9 C 13,3 C 12,2 C 87 % 0 lf 1021,5 hPa 0,0 l/m 0 min 0 min 181 W/m 20,9 km/h (4 Bft) 97,87 %
04.10.2017 10:34 11,9 C 13,3 C 12,2 C 87 % 0 lf 1021,4 hPa 0,0 l/m 0 min 0 min 187 W/m 23,0 km/h (4 Bft) 95,74 %
04.10.2017 10:36 11,9 C 13,9 C 12,2 C 86 % 0 lf 1021,4 hPa 0,0 l/m 2 min 0 min 216 W/m 18,8 km/h (3 Bft) 100,00 %
04.10.2017 10:38 12,0 C 13,9 C 12,8 C 86 % 0 lf 1021,5 hPa 0,0 l/m 2 min 0 min 243 W/m 18,8 km/h (3 Bft) 100,00 %
04.10.2017 10:40 12,1 C 14,4 C 12,8 C 86 % 0 lf 1021,4 hPa 0,0 l/m 2 min 0 min 296 W/m 25,1 km/h (4 Bft) 100,00 %
04.10.2017 10:42 12,1 C 15,0 C 13,3 C 86 % 0 lf 1021,4 hPa 0,0 l/m 2 min 0 min 351 W/m 23,0 km/h (4 Bft) 97,87 %
04.10.2017 10:44 12,2 C 16,1 C 13,9 C 86 % 0 lf 1021,3 hPa 0,0 l/m 2 min 0 min 298 W/m 18,8 km/h (3 Bft) 97,87 %
04.10.2017 10:46 12,2 C 15,6 C 13,9 C 86 % 0 lf 1021,2 hPa 0,0 l/m 2 min 0 min 268 W/m 25,1 km/h (4 Bft) 100,00 %
04.10.2017 10:48 12,3 C 15,6 C 13,3 C 86 % 0 lf 1021,2 hPa 0,0 l/m 2 min 0 min 237 W/m 14,6 km/h (3 Bft) 100,00 %
04.10.2017 10:50 12,4 C 15,0 C 13,3 C 85 % 0 lf 1021,1 hPa 0,0 l/m 2 min 0 min 229 W/m 14,6 km/h (3 Bft) 98,31 %
04.10.2017 10:52 12,4 C 14,4 C 13,3 C 85 % 0 lf 1021,1 hPa 0,0 l/m 2 min 0 min 216 W/m 16,7 km/h (3 Bft) 100,00 %
04.10.2017 10:54 12,4 C 14,4 C 12,8 C 85 % 0 lf 1021,3 hPa 0,0 l/m 0 min 0 min 214 W/m 23,0 km/h (4 Bft) 95,74 %
04.10.2017 10:56 12,5 C 14,4 C 13,3 C 85 % 0 lf 1021,3 hPa 0,0 l/m 2 min 0 min 223 W/m 16,7 km/h (3 Bft) 95,83 %
04.10.2017 10:58 12,6 C 14,4 C 13,3 C 85 % 0 lf 1021,2 hPa 0,0 l/m 2 min 0 min 231 W/m 14,6 km/h (3 Bft) 100,00 %
04.10.2017 11:00 12,6 C 15,0 C 13,3 C 85 % 0 lf 1021,0 hPa 0,0 l/m 2 min 0 min 240 W/m 18,8 km/h (3 Bft) 100,00 %
04.10.2017 11:02 12,6 C 15,6 C 13,3 C 84 % 0 lf 1021,0 hPa 0,0 l/m 2 min 0 min 247 W/m 10,5 km/h (2 Bft) 100,00 %
04.10.2017 11:04 12,7 C 15,6 C 13,3 C 84 % 0 lf 1021,0 hPa 0,0 l/m 2 min 0 min 237 W/m 14,6 km/h (3 Bft) 100,00 %
04.10.2017 11:06 12,7 C 15,6 C 13,3 C 84 % 0 lf 1021,0 hPa 0,0 l/m 2 min 0 min 246 W/m 14,6 km/h (3 Bft) 100,00 %
04.10.2017 11:08 12,7 C 15,6 C 13,9 C 84 % 0 lf 1021,1 hPa 0,0 l/m 2 min 0 min 260 W/m 14,6 km/h (3 Bft) 97,87 %
04.10.2017 11:10 12,8 C 15,6 C 13,9 C 84 % 0 lf 1021,0 hPa 0,0 l/m 2 min 0 min 279 W/m 25,1 km/h (4 Bft) 95,65 %
04.10.2017 11:12 12,8 C 16,7 C 14,4 C 84 % 0 lf 1021,1 hPa 0,0 l/m 2 min 0 min 341 W/m 18,8 km/h (3 Bft) 100,00 %
04.10.2017 11:14 12,9 C 17,2 C 14,4 C 84 % 0 lf 1021,2 hPa 0,0 l/m 2 min 0 min 346 W/m 14,6 km/h (3 Bft) 100,00 %
04.10.2017 11:16 13,0 C 16,7 C 14,4 C 84 % 0 lf 1021,1 hPa 0,0 l/m 2 min 0 min 310 W/m 20,9 km/h (4 Bft) 100,00 %
04.10.2017 11:18 13,1 C 17,2 C 14,4 C 83 % 0 lf 1021,2 hPa 0,0 l/m 2 min 0 min 301 W/m 10,5 km/h (2 Bft) 100,00 %
04.10.2017 11:20 13,1 C 17,2 C 14,4 C 83 % 0 lf 1021,2 hPa 0,0 l/m 2 min 0 min 316 W/m 14,6 km/h (3 Bft) 97,87 %
04.10.2017 11:22 13,2 C 16,7 C 14,4 C 83 % 0 lf 1021,0 hPa 0,0 l/m 2 min 0 min 357 W/m 20,9 km/h (4 Bft) 100,00 %
04.10.2017 11:24 13,2 C 17,8 C 15,0 C 83 % 0 lf 1021,0 hPa 0,0 l/m 2 min 0 min 587 W/m 18,8 km/h (3 Bft) 97,92 %
04.10.2017 11:26 13,3 C 17,8 C 15,6 C 83 % 0 lf 1021,0 hPa 0,0 l/m 2 min 0 min 513 W/m 25,1 km/h (4 Bft) 95,83 %
04.10.2017 11:28 13,3 C 18,9 C 15,6 C 82 % 0 lf 1020,9 hPa 0,0 l/m 2 min 0 min 516 W/m 14,6 km/h (3 Bft) 100,00 %
04.10.2017 11:30 13,4 C 18,9 C 15,6 C 82 % 0 lf 1021,0 hPa 0,0 l/m 2 min 0 min 519 W/m 18,8 km/h (3 Bft) 97,92 %
04.10.2017 11:32 13,5 C 17,8 C 15,0 C 82 % 0 lf 1020,9 hPa 0,0 l/m 2 min 0 min 521 W/m 25,1 km/h (4 Bft) 97,92 %
04.10.2017 11:34 13,6 C 17,8 C 15,0 C 81 % 0 lf 1021,0 hPa 0,0 l/m 2 min 0 min 524 W/m 35,6 km/h (5 Bft) 100,00 %
04.10.2017 11:36 13,6 C 17,2 C 15,0 C 81 % 0 lf 1021,1 hPa 0,0 l/m 2 min 0 min 527 W/m 25,1 km/h (4 Bft) 97,87 %
04.10.2017 11:38 13,7 C 16,7 C 15,0 C 80 % 0 lf 1021,0 hPa 0,0 l/m 2 min 0 min 529 W/m 27,2 km/h (4 Bft) 100,00 %
04.10.2017 11:40 13,7 C 17,2 C 15,0 C 80 % 0 lf 1021,1 hPa 0,0 l/m 2 min 0 min 532 W/m 23,0 km/h (4 Bft) 97,87 %
04.10.2017 11:42 13,7 C 17,8 C 15,6 C 80 % 0 lf 1021,2 hPa 0,0 l/m 2 min 0 min 534 W/m 18,8 km/h (3 Bft) 100,00 %
04.10.2017 11:44 13,8 C 18,9 C 16,1 C 80 % 0 lf 1021,1 hPa 0,0 l/m 2 min 0 min 537 W/m 25,1 km/h (4 Bft) 100,00 %
04.10.2017 11:46 13,9 C 19,4 C 16,1 C 80 % 0 lf 1021,0 hPa 0,0 l/m 2 min 0 min 539 W/m 18,8 km/h (3 Bft) 97,62 %
04.10.2017 11:48 14,0 C 18,9 C 16,1 C 80 % 0 lf 1021,1 hPa 0,0 l/m 2 min 0 min 541 W/m 29,3 km/h (5 Bft) 95,83 %
04.10.2017 11:50 14,1 C 18,3 C 15,6 C 79 % 0 lf 1021,0 hPa 0,0 l/m 2 min 0 min 544 W/m 27,2 km/h (4 Bft) 96,30 %
04.10.2017 11:52 14,2 C 17,8 C 15,6 C 79 % 0 lf 1021,0 hPa 0,0 l/m 2 min 0 min 546 W/m 23,0 km/h (4 Bft) 95,74 %
04.10.2017 11:54 14,2 C 17,2 C 15,6 C 78 % 0 lf 1021,1 hPa 0,0 l/m 2 min 0 min 548 W/m 25,1 km/h (4 Bft) 95,12 %
04.10.2017 11:56 14,2 C 16,7 C 15,0 C 78 % 0 lf 1021,1 hPa 0,0 l/m 2 min 0 min 550 W/m 31,4 km/h (5 Bft) 97,92 %
04.10.2017 11:58 14,2 C 16,1 C 14,4 C 78 % 0 lf 1021,1 hPa 0,0 l/m 2 min 0 min 552 W/m 29,3 km/h (5 Bft) 95,24 %
04.10.2017 12:00 14,2 C 15,6 C 14,4 C 78 % 0 lf 1021,1 hPa 0,0 l/m 2 min 0 min 555 W/m 25,1 km/h (4 Bft) 95,45 %
04.10.2017 12:02 14,1 C 15,6 C 14,4 C 78 % 0 lf 1021,2 hPa 0,0 l/m 2 min 0 min 557 W/m 29,3 km/h (5 Bft) 95,74 %
04.10.2017 12:04 14,1 C 15,6 C 14,4 C 77 % 0 lf 1021,1 hPa 0,0 l/m 2 min 0 min 558 W/m 35,6 km/h (5 Bft) 95,65 %
04.10.2017 12:06 14,0 C 15,6 C 13,9 C 77 % 0 lf 1021,0 hPa 0,0 l/m 2 min 0 min 560 W/m 31,4 km/h (5 Bft) 91,49 %
04.10.2017 12:10 13,9 C 16,1 C 13,9 C 78 % 0 lf 1021,1 hPa 0,0 l/m 4 min 0 min 564 W/m 31,4 km/h (5 Bft) 93,75 %
04.10.2017 12:12 13,9 C 16,7 C 14,4 C 78 % 0 lf 1021,2 hPa 0,0 l/m 2 min 0 min 566 W/m 29,3 km/h (5 Bft) 93,62 %
04.10.2017 12:14 13,9 C 17,2 C 15,0 C 78 % 0 lf 1021,1 hPa 0,0 l/m 2 min 0 min 568 W/m 35,6 km/h (5 Bft) 95,74 %
04.10.2017 12:16 14,0 C 17,8 C 15,6 C 78 % 0 lf 1021,1 hPa 0,0 l/m 2 min 0 min 569 W/m 29,3 km/h (5 Bft) 91,49 %
04.10.2017 12:18 14,1 C 17,8 C 15,6 C 78 % 0 lf 1021,0 hPa 0,0 l/m 2 min 0 min 571 W/m 35,6 km/h (5 Bft) 91,67 %
04.10.2017 12:20 14,2 C 17,8 C 15,6 C 78 % 0 lf 1020,9 hPa 0,0 l/m 2 min 0 min 572 W/m 25,1 km/h (4 Bft) 91,67 %
04.10.2017 12:22 14,2 C 17,8 C 15,6 C 78 % 0 lf 1020,9 hPa 0,0 l/m 2 min 0 min 574 W/m 39,7 km/h (6 Bft) 93,75 %
04.10.2017 12:24 14,2 C 17,8 C 15,6 C 77 % 0 lf 1020,7 hPa 0,0 l/m 2 min 0 min 576 W/m 33,5 km/h (5 Bft) 89,36 %
04.10.2017 12:26 14,2 C 16,7 C 15,0 C 77 % 0 lf 1020,8 hPa 0,0 l/m 2 min 0 min 577 W/m 31,4 km/h (5 Bft) 91,30 %
04.10.2017 12:28 14,2 C 15,6 C 14,4 C 77 % 0 lf 1021,0 hPa 0,0 l/m 2 min 0 min 578 W/m 35,6 km/h (5 Bft) 95,83 %
04.10.2017 12:30 14,2 C 15,0 C 13,9 C 76 % 0 lf 1020,9 hPa 0,0 l/m 2 min 0 min 580 W/m 35,6 km/h (5 Bft) 93,75 %
04.10.2017 12:32 14,2 C 15,0 C 13,9 C 76 % 0 lf 1021,1 hPa 0,0 l/m 2 min 0 min 675 W/m 20,9 km/h (4 Bft) 91,67 %
04.10.2017 12:34 14,2 C 15,6 C 13,9 C 77 % 0 lf 1021,3 hPa 0,0 l/m 2 min 0 min 415 W/m 20,9 km/h (4 Bft) 93,62 %
04.10.2017 12:36 14,2 C 15,6 C 14,4 C 77 % 0 lf 1021,2 hPa 0,0 l/m 2 min 0 min 404 W/m 31,4 km/h (5 Bft) 89,80 %
04.10.2017 12:38 14,2 C 15,0 C 14,4 C 77 % 0 lf 1021,1 hPa 0,0 l/m 2 min 0 min 426 W/m 27,2 km/h (4 Bft) 94,59 %
04.10.2017 12:40 14,2 C 15,6 C 14,4 C 77 % 0 lf 1021,1 hPa 0,0 l/m 2 min 0 min 448 W/m 23,0 km/h (4 Bft) 93,62 %
04.10.2017 12:42 14,2 C 15,6 C 15,0 C 77 % 0 lf 1020,9 hPa 0,0 l/m 2 min 0 min 438 W/m 18,8 km/h (3 Bft) 93,62 %
04.10.2017 12:44 14,2 C 15,6 C 15,0 C 78 % 0 lf 1020,7 hPa 0,0 l/m 2 min 0 min 420 W/m 23,0 km/h (4 Bft) 93,62 %
04.10.2017 12:46 14,2 C 15,6 C 14,4 C 77 % 0 lf 1020,8 hPa 0,0 l/m 2 min 0 min 442 W/m 39,7 km/h (6 Bft) 93,22 %
04.10.2017 12:48 14,2 C 15,6 C 14,4 C 77 % 0 lf 1020,6 hPa 0,0 l/m 2 min 0 min 453 W/m 29,3 km/h (5 Bft) 97,14 %
04.10.2017 12:50 14,2 C 15,6 C 14,4 C 77 % 0 lf 1020,6 hPa 0,0 l/m 2 min 0 min 442 W/m 31,4 km/h (5 Bft) 93,10 %
04.10.2017 12:52 14,2 C 15,6 C 14,4 C 77 % 0 lf 1020,5 hPa 0,0 l/m 2 min 0 min 433 W/m 23,0 km/h (4 Bft) 94,29 %
04.10.2017 12:54 14,2 C 15,6 C 14,4 C 77 % 0 lf 1020,6 hPa 0,0 l/m 2 min 0 min 440 W/m 18,8 km/h (3 Bft) 93,75 %
04.10.2017 12:56 14,2 C 15,6 C 14,4 C 77 % 0 lf 1020,6 hPa 0,0 l/m 2 min 0 min 345 W/m 27,2 km/h (4 Bft) 97,87 %
04.10.2017 12:58 14,2 C 15,6 C 14,4 C 77 % 0 lf 1020,6 hPa 0,0 l/m 0 min 0 min 256 W/m 31,4 km/h (5 Bft) 93,62 %
04.10.2017 13:00 14,2 C 15,6 C 14,4 C 77 % 0 lf 1020,6 hPa 0,0 l/m 0 min 0 min 227 W/m 33,5 km/h (5 Bft) 97,87 %
04.10.2017 13:02 14,2 C 15,6 C 14,4 C 77 % 0 lf 1020,6 hPa 0,0 l/m 0 min 0 min 221 W/m 33,5 km/h (5 Bft) 95,65 %
04.10.2017 13:04 14,2 C 15,6 C 14,4 C 77 % 0 lf 1020,6 hPa 0,0 l/m 0 min 0 min 233 W/m 35,6 km/h (5 Bft) 95,74 %
04.10.2017 13:06 14,2 C 16,7 C 14,4 C 77 % 0 lf 1020,5 hPa 0,0 l/m 0 min 0 min 253 W/m 25,1 km/h (4 Bft) 97,92 %
04.10.2017 13:08 14,2 C 16,7 C 15,0 C 77 % 0 lf 1020,5 hPa 0,0 l/m 0 min 0 min 251 W/m 23,0 km/h (4 Bft) 97,92 %
04.10.2017 13:10 14,2 C 16,7 C 15,0 C 77 % 0 lf 1020,5 hPa 0,0 l/m 0 min 0 min 249 W/m 27,2 km/h (4 Bft) 95,74 %
04.10.2017 13:12 14,2 C 17,8 C 15,0 C 77 % 0 lf 1020,5 hPa 0,0 l/m 0 min 0 min 249 W/m 23,0 km/h (4 Bft) 97,87 %
04.10.2017 13:14 14,3 C 18,3 C 15,6 C 77 % 0 lf 1020,5 hPa 0,0 l/m 0 min 0 min 253 W/m 23,0 km/h (4 Bft) 95,74 %
04.10.2017 13:16 14,4 C 19,4 C 15,6 C 77 % 0 lf 1020,4 hPa 0,0 l/m 0 min 0 min 262 W/m 23,0 km/h (4 Bft) 97,87 %
04.10.2017 13:18 14,5 C 18,9 C 16,1 C 76 % 0 lf 1020,4 hPa 0,0 l/m 2 min 0 min 288 W/m 35,6 km/h (5 Bft) 97,83 %
04.10.2017 13:20 14,6 C 18,9 C 15,6 C 75 % 0 lf 1020,5 hPa 0,0 l/m 0 min 0 min 267 W/m 31,4 km/h (5 Bft) 97,87 %
04.10.2017 13:22 14,7 C 19,4 C 16,1 C 75 % 0 lf 1020,4 hPa 0,0 l/m 0 min 0 min 271 W/m 35,6 km/h (5 Bft) 97,87 %
04.10.2017 13:24 14,7 C 18,3 C 15,6 C 74 % 0 lf 1020,4 hPa 0,0 l/m 0 min 0 min 239 W/m 27,2 km/h (4 Bft) 100,00 %
04.10.2017 13:26 14,8 C 17,2 C 15,6 C 74 % 0 lf 1020,6 hPa 0,0 l/m 0 min 0 min 224 W/m 35,6 km/h (5 Bft) 100,00 %
04.10.2017 13:28 14,8 C 16,7 C 15,0 C 73 % 0 lf 1020,6 hPa 0,0 l/m 0 min 0 min 192 W/m 41,8 km/h (6 Bft) 93,62 %
04.10.2017 13:30 14,8 C 16,1 C 15,0 C 73 % 0 lf 1020,4 hPa 0,0 l/m 0 min 0 min 182 W/m 33,5 km/h (5 Bft) 97,83 %
04.10.2017 13:32 14,7 C 15,6 C 14,4 C 72 % 0 lf 1020,4 hPa 0,0 l/m 0 min 0 min 183 W/m 27,2 km/h (4 Bft) 100,00 %
04.10.2017 13:34 14,7 C 16,1 C 14,4 C 73 % 0 lf 1020,3 hPa 0,0 l/m 0 min 0 min 187 W/m 31,4 km/h (5 Bft) 100,00 %
04.10.2017 13:36 14,7 C 16,1 C 14,4 C 73 % 0 lf 1020,3 hPa 0,0 l/m 0 min 0 min 190 W/m 23,0 km/h (4 Bft) 100,00 %
04.10.2017 13:38 14,7 C 17,2 C 15,0 C 74 % 0 lf 1020,3 hPa 0,0 l/m 0 min 0 min 214 W/m 25,1 km/h (4 Bft) 100,00 %
04.10.2017 13:40 14,7 C 17,2 C 15,0 C 74 % 0 lf 1020,2 hPa 0,0 l/m 0 min 0 min 235 W/m 35,6 km/h (5 Bft) 97,92 %
04.10.2017 13:42 14,7 C 16,1 C 15,0 C 73 % 0 lf 1020,1 hPa 0,0 l/m 0 min 0 min 192 W/m 39,7 km/h (6 Bft) 97,87 %
04.10.2017 13:44 14,7 C 16,1 C 15,0 C 72 % 0 lf 1020,0 hPa 0,0 l/m 0 min 0 min 191 W/m 20,9 km/h (4 Bft) 97,92 %
04.10.2017 13:46 14,7 C 16,1 C 15,0 C 72 % 0 lf 1020,2 hPa 0,0 l/m 0 min 0 min 195 W/m 27,2 km/h (4 Bft) 97,92 %
04.10.2017 13:48 14,7 C 16,1 C 14,4 C 72 % 0 lf 1020,3 hPa 0,0 l/m 0 min 0 min 201 W/m 29,3 km/h (5 Bft) 100,00 %
04.10.2017 13:50 14,6 C 17,2 C 15,0 C 72 % 0 lf 1020,4 hPa 0,0 l/m 0 min 0 min 224 W/m 31,4 km/h (5 Bft) 100,00 %
04.10.2017 13:52 14,7 C 17,8 C 15,0 C 72 % 0 lf 1020,4 hPa 0,0 l/m 0 min 0 min 231 W/m 33,5 km/h (5 Bft) 100,00 %
04.10.2017 13:54 14,7 C 17,2 C 15,0 C 71 % 0 lf 1020,4 hPa 0,0 l/m 0 min 0 min 220 W/m 35,6 km/h (5 Bft) 100,00 %
04.10.2017 13:56 14,7 C 17,8 C 15,0 C 71 % 0 lf 1020,2 hPa 0,0 l/m 0 min 0 min 244 W/m 27,2 km/h (4 Bft) 97,87 %
04.10.2017 13:58 14,7 C 16,7 C 15,6 C 71 % 0 lf 1020,1 hPa 0,0 l/m 0 min 0 min 225 W/m 33,5 km/h (5 Bft) 100,00 %
04.10.2017 14:00 14,7 C 17,2 C 15,6 C 72 % 0 lf 1020,3 hPa 0,0 l/m 0 min 0 min 216 W/m 27,2 km/h (4 Bft) 100,00 %
04.10.2017 14:02 14,7 C 17,2 C 15,6 C 71 % 0 lf 1020,4 hPa 0,0 l/m 0 min 0 min 229 W/m 37,7 km/h (5 Bft) 100,00 %
04.10.2017 14:04 14,8 C 16,7 C 15,6 C 71 % 0 lf 1020,3 hPa 0,0 l/m 0 min 0 min 215 W/m 27,2 km/h (4 Bft) 97,87 %
04.10.2017 14:06 14,8 C 16,7 C 15,6 C 70 % 0 lf 1020,2 hPa 0,0 l/m 0 min 0 min 215 W/m 31,4 km/h (5 Bft) 100,00 %
04.10.2017 14:08 14,7 C 16,1 C 15,0 C 70 % 0 lf 1020,2 hPa 0,0 l/m 0 min 0 min 224 W/m 41,8 km/h (6 Bft) 97,87 %
04.10.2017 14:10 14,7 C 16,1 C 15,0 C 70 % 0 lf 1020,3 hPa 0,0 l/m 0 min 0 min 213 W/m 31,4 km/h (5 Bft) 100,00 %
04.10.2017 14:12 14,7 C 16,7 C 15,6 C 71 % 0 lf 1020,2 hPa 0,0 l/m 0 min 0 min 215 W/m 23,0 km/h (4 Bft) 100,00 %
04.10.2017 14:14 14,7 C 16,7 C 15,6 C 71 % 0 lf 1020,2 hPa 0,0 l/m 0 min 0 min 222 W/m 33,5 km/h (5 Bft) 100,00 %
04.10.2017 14:16 14,7 C 16,7 C 15,6 C 71 % 0 lf 1020,3 hPa 0,0 l/m 0 min 0 min 229 W/m 25,1 km/h (4 Bft) 97,83 %
04.10.2017 14:18 14,8 C 17,2 C 16,1 C 71 % 0 lf 1020,1 hPa 0,0 l/m 0 min 0 min 231 W/m 27,2 km/h (4 Bft) 95,74 %
04.10.2017 14:20 14,8 C 17,8 C 16,1 C 71 % 0 lf 1020,2 hPa 0,0 l/m 0 min 0 min 244 W/m 37,7 km/h (5 Bft) 100,00 %
04.10.2017 14:22 14,8 C 17,2 C 16,1 C 70 % 0 lf 1020,1 hPa 0,0 l/m 0 min 0 min 227 W/m 27,2 km/h (4 Bft) 100,00 %
04.10.2017 14:24 14,9 C 17,2 C 15,6 C 70 % 0 lf 1020,2 hPa 0,0 l/m 0 min 0 min 214 W/m 37,7 km/h (5 Bft) 97,87 %
04.10.2017 14:26 14,9 C 16,7 C 15,6 C 70 % 0 lf 1020,1 hPa 0,0 l/m 0 min 0 min 208 W/m 31,4 km/h (5 Bft) 93,62 %
04.10.2017 14:28 14,8 C 16,7 C 15,6 C 69 % 0 lf 1020,1 hPa 0,0 l/m 0 min 0 min 210 W/m 35,6 km/h (5 Bft) 95,65 %
04.10.2017 14:30 14,8 C 16,1 C 15,6 C 70 % 0 lf 1020,1 hPa 0,0 l/m 0 min 0 min 209 W/m 46,0 km/h (6 Bft) 95,74 %
04.10.2017 14:32 14,8 C 16,1 C 15,0 C 70 % 0 lf 1020,0 hPa 0,0 l/m 0 min 0 min 206 W/m 35,6 km/h (5 Bft) 95,74 %
04.10.2017 14:34 14,8 C 16,1 C 15,0 C 69 % 0 lf 1020,1 hPa 0,0 l/m 0 min 0 min 200 W/m 29,3 km/h (5 Bft) 93,62 %
04.10.2017 14:36 14,8 C 15,6 C 15,0 C 69 % 0 lf 1020,3 hPa 0,0 l/m 0 min 0 min 194 W/m 31,4 km/h (5 Bft) 93,62 %
04.10.2017 14:38 14,7 C 15,6 C 15,0 C 69 % 0 lf 1020,2 hPa 0,0 l/m 0 min 0 min 193 W/m 33,5 km/h (5 Bft) 95,74 %
04.10.2017 14:40 14,7 C 15,6 C 15,0 C 70 % 0 lf 1020,2 hPa 0,0 l/m 0 min 0 min 193 W/m 31,4 km/h (5 Bft) 95,65 %
04.10.2017 14:42 14,7 C 15,6 C 15,0 C 70 % 0 lf 1020,1 hPa 0,0 l/m 0 min 0 min 188 W/m 25,1 km/h (4 Bft) 95,24 %
04.10.2017 14:44 14,7 C 15,6 C 15,0 C 70 % 0 lf 1020,1 hPa 0,0 l/m 0 min 0 min 190 W/m 20,9 km/h (4 Bft) 93,62 %
04.10.2017 14:46 14,6 C 15,6 C 15,0 C 70 % 0 lf 1020,1 hPa 0,0 l/m 0 min 0 min 198 W/m 29,3 km/h (5 Bft) 95,83 %
04.10.2017 14:48 14,6 C 15,6 C 15,0 C 70 % 0 lf 1020,0 hPa 0,0 l/m 0 min 0 min 196 W/m 27,2 km/h (4 Bft) 95,65 %
04.10.2017 14:50 14,6 C 15,6 C 15,0 C 70 % 0 lf 1020,0 hPa 0,0 l/m 0 min 0 min 200 W/m 27,2 km/h (4 Bft) 93,75 %
04.10.2017 14:52 14,6 C 15,6 C 15,0 C 70 % 0 lf 1020,0 hPa 0,0 l/m 0 min 0 min 201 W/m 27,2 km/h (4 Bft) 94,34 %
04.10.2017 14:54 14,6 C 15,6 C 15,0 C 70 % 0 lf 1020,0 hPa 0,0 l/m 0 min 0 min 202 W/m 25,1 km/h (4 Bft) 95,74 %
04.10.2017 14:56 14,6 C 15,6 C 15,0 C 71 % 0 lf 1020,0 hPa 0,0 l/m 0 min 0 min 203 W/m 31,4 km/h (5 Bft) 97,62 %
04.10.2017 14:58 14,6 C 15,6 C 15,0 C 71 % 0 lf 1020,0 hPa 0,0 l/m 0 min 0 min 207 W/m 27,2 km/h (4 Bft) 93,75 %
04.10.2017 15:00 14,6 C 15,6 C 15,0 C 71 % 0 lf 1019,9 hPa 0,0 l/m 0 min 0 min 211 W/m 27,2 km/h (4 Bft) 87,76 %
04.10.2017 15:02 14,6 C 16,7 C 15,6 C 71 % 0 lf 1019,8 hPa 0,0 l/m 0 min 0 min 220 W/m 25,1 km/h (4 Bft) 93,62 %
04.10.2017 15:04 14,6 C 17,2 C 15,6 C 72 % 0 lf 1019,8 hPa 0,0 l/m 0 min 0 min 225 W/m 27,2 km/h (4 Bft) 93,62 %
04.10.2017 15:06 14,7 C 16,7 C 15,6 C 71 % 0 lf 1019,8 hPa 0,0 l/m 0 min 0 min 223 W/m 29,3 km/h (5 Bft) 91,67 %
04.10.2017 15:08 14,7 C 16,7 C 15,6 C 71 % 0 lf 1020,0 hPa 0,0 l/m 0 min 0 min 208 W/m 31,4 km/h (5 Bft) 97,87 %
04.10.2017 15:10 14,8 C 16,7 C 15,6 C 71 % 0 lf 1020,0 hPa 0,0 l/m 0 min 0 min 202 W/m 25,1 km/h (4 Bft) 97,83 %
04.10.2017 15:12 14,8 C 16,1 C 15,0 C 71 % 0 lf 1019,9 hPa 0,0 l/m 0 min 0 min 197 W/m 37,7 km/h (5 Bft) 97,87 %
04.10.2017 15:14 14,8 C 16,1 C 15,0 C 71 % 0 lf 1019,8 hPa 0,0 l/m 0 min 0 min 197 W/m 33,5 km/h (5 Bft) 97,87 %
04.10.2017 15:16 14,7 C 15,6 C 15,0 C 70 % 0 lf 1019,8 hPa 0,0 l/m 0 min 0 min 204 W/m 27,2 km/h (4 Bft) 97,87 %
04.10.2017 15:18 14,7 C 16,1 C 15,0 C 71 % 0 lf 1019,8 hPa 0,0 l/m 0 min 0 min 204 W/m 23,0 km/h (4 Bft) 95,74 %
04.10.2017 15:20 14,7 C 15,6 C 15,0 C 70 % 0 lf 1019,7 hPa 0,0 l/m 0 min 0 min 205 W/m 37,7 km/h (5 Bft) 97,87 %
04.10.2017 15:22 14,7 C 15,6 C 15,0 C 71 % 0 lf 1019,7 hPa 0,0 l/m 0 min 0 min 202 W/m 29,3 km/h (5 Bft) 97,87 %
04.10.2017 15:24 14,7 C 15,6 C 15,0 C 71 % 0 lf 1019,7 hPa 0,0 l/m 0 min 0 min 197 W/m 23,0 km/h (4 Bft) 97,87 %
04.10.2017 15:26 14,7 C 15,6 C 15,0 C 71 % 0 lf 1019,7 hPa 0,0 l/m 0 min 0 min 193 W/m 29,3 km/h (5 Bft) 89,13 %
04.10.2017 15:28 14,6 C 15,6 C 15,0 C 70 % 0 lf 1019,7 hPa 0,0 l/m 0 min 0 min 192 W/m 27,2 km/h (4 Bft) 97,87 %
04.10.2017 15:30 14,6 C 15,6 C 15,0 C 71 % 0 lf 1019,6 hPa 0,0 l/m 0 min 0 min 191 W/m 23,0 km/h (4 Bft) 95,24 %
04.10.2017 15:32 14,6 C 15,6 C 15,0 C 71 % 0 lf 1019,6 hPa 0,0 l/m 0 min 0 min 190 W/m 29,3 km/h (5 Bft) 98,00 %
04.10.2017 15:34 14,6 C 15,6 C 15,0 C 71 % 0 lf 1019,8 hPa 0,0 l/m 0 min 0 min 187 W/m 25,1 km/h (4 Bft) 97,83 %
04.10.2017 15:36 14,6 C 15,6 C 14,4 C 71 % 0 lf 1019,8 hPa 0,0 l/m 0 min 0 min 184 W/m 23,0 km/h (4 Bft) 95,83 %
04.10.2017 15:38 14,6 C 15,0 C 14,4 C 72 % 0 lf 1019,7 hPa 0,0 l/m 0 min 0 min 184 W/m 20,9 km/h (4 Bft) 97,87 %
04.10.2017 15:40 14,6 C 15,0 C 14,4 C 72 % 0 lf 1019,7 hPa 0,0 l/m 0 min 0 min 184 W/m 23,0 km/h (4 Bft) 97,87 %
04.10.2017 15:42 14,5 C 15,0 C 14,4 C 72 % 0 lf 1019,7 hPa 0,0 l/m 0 min 0 min 187 W/m 27,2 km/h (4 Bft) 91,67 %
04.10.2017 15:44 14,5 C 15,0 C 14,4 C 72 % 0 lf 1019,6 hPa 0,0 l/m 0 min 0 min 188 W/m 25,1 km/h (4 Bft) 95,65 %
04.10.2017 15:46 14,4 C 15,0 C 14,4 C 72 % 0 lf 1019,6 hPa 0,0 l/m 0 min 0 min 187 W/m 18,8 km/h (3 Bft) 93,62 %
04.10.2017 15:48 14,4 C 15,0 C 14,4 C 72 % 0 lf 1019,5 hPa 0,0 l/m 0 min 0 min 187 W/m 25,1 km/h (4 Bft) 95,74 %
04.10.2017 15:50 14,4 C 15,0 C 14,4 C 72 % 0 lf 1019,6 hPa 0,0 l/m 0 min 0 min 190 W/m 29,3 km/h (5 Bft) 95,74 %
04.10.2017 15:52 14,4 C 15,0 C 14,4 C 72 % 0 lf 1019,5 hPa 0,0 l/m 0 min 0 min 197 W/m 25,1 km/h (4 Bft) 95,74 %
04.10.2017 15:54 14,4 C 15,0 C 14,4 C 72 % 0 lf 1019,4 hPa 0,0 l/m 0 min 0 min 199 W/m 29,3 km/h (5 Bft) 97,87 %
04.10.2017 15:56 14,4 C 15,6 C 14,4 C 72 % 0 lf 1019,5 hPa 0,0 l/m 0 min 0 min 195 W/m 23,0 km/h (4 Bft) 93,62 %
04.10.2017 15:58 14,4 C 15,6 C 14,4 C 72 % 0 lf 1019,6 hPa 0,0 l/m 0 min 0 min 194 W/m 29,3 km/h (5 Bft) 93,62 %
04.10.2017 16:00 14,4 C 15,6 C 14,4 C 72 % 0 lf 1019,7 hPa 0,0 l/m 0 min 0 min 194 W/m 25,1 km/h (4 Bft) 97,56 %
04.10.2017 16:02 14,4 C 15,6 C 15,0 C 72 % 0 lf 1019,8 hPa 0,0 l/m 0 min 0 min 193 W/m 25,1 km/h (4 Bft) 98,00 %
04.10.2017 16:04 14,4 C 15,6 C 14,4 C 72 % 0 lf 1019,7 hPa 0,0 l/m 0 min 0 min 185 W/m 18,8 km/h (3 Bft) 97,87 %
04.10.2017 16:06 14,4 C 15,0 C 14,4 C 72 % 0 lf 1019,7 hPa 0,0 l/m 0 min 0 min 178 W/m 18,8 km/h (3 Bft) 91,67 %
04.10.2017 16:08 14,4 C 15,0 C 13,9 C 72 % 0 lf 1019,7 hPa 0,0 l/m 0 min 0 min 173 W/m 20,9 km/h (4 Bft) 97,83 %
04.10.2017 16:10 14,4 C 14,4 C 13,9 C 72 % 0 lf 1019,8 hPa 0,0 l/m 0 min 0 min 170 W/m 23,0 km/h (4 Bft) 91,67 %
04.10.2017 16:12 14,3 C 14,4 C 13,9 C 72 % 0 lf 1019,8 hPa 0,0 l/m 0 min 0 min 169 W/m 25,1 km/h (4 Bft) 97,87 %
04.10.2017 16:14 14,3 C 14,4 C 13,3 C 71 % 0 lf 1019,8 hPa 0,0 l/m 0 min 0 min 171 W/m 35,6 km/h (5 Bft) 97,87 %
04.10.2017 16:16 14,2 C 14,4 C 13,3 C 71 % 0 lf 1019,7 hPa 0,0 l/m 0 min 0 min 173 W/m 29,3 km/h (5 Bft) 97,87 %
04.10.2017 16:18 14,2 C 14,4 C 13,3 C 71 % 0 lf 1019,6 hPa 0,0 l/m 0 min 0 min 176 W/m 27,2 km/h (4 Bft) 97,87 %
04.10.2017 16:20 14,2 C 14,4 C 13,3 C 71 % 0 lf 1019,5 hPa 0,0 l/m 0 min 0 min 176 W/m 27,2 km/h (4 Bft) 95,74 %
04.10.2017 16:22 14,2 C 14,4 C 13,3 C 72 % 0 lf 1019,5 hPa 0,0 l/m 0 min 0 min 175 W/m 16,7 km/h (3 Bft) 97,87 %
04.10.2017 16:24 14,2 C 14,4 C 13,9 C 72 % 0 lf 1019,6 hPa 0,0 l/m 0 min 0 min 176 W/m 18,8 km/h (3 Bft) 97,78 %
04.10.2017 16:26 14,2 C 14,4 C 13,9 C 72 % 0 lf 1019,7 hPa 0,0 l/m 0 min 0 min 176 W/m 18,8 km/h (3 Bft) 95,74 %
04.10.2017 16:28 14,2 C 14,4 C 13,9 C 72 % 0 lf 1019,7 hPa 0,0 l/m 0 min 0 min 176 W/m 20,9 km/h (4 Bft) 95,74 %
04.10.2017 16:30 14,2 C 14,4 C 13,9 C 72 % 0 lf 1019,6 hPa 0,0 l/m 0 min 0 min 180 W/m 27,2 km/h (4 Bft) 93,62 %
04.10.2017 16:32 14,2 C 14,4 C 13,9 C 72 % 0 lf 1019,6 hPa 0,0 l/m 0 min 0 min 178 W/m 25,1 km/h (4 Bft) 97,87 %
04.10.2017 16:34 14,2 C 14,4 C 13,9 C 72 % 0 lf 1019,5 hPa 0,0 l/m 0 min 0 min 175 W/m 23,0 km/h (4 Bft) 100,00 %
04.10.2017 16:36 14,2 C 14,4 C 13,3 C 72 % 0 lf 1019,5 hPa 0,0 l/m 0 min 0 min 173 W/m 20,9 km/h (4 Bft) 95,65 %
04.10.2017 16:38 14,2 C 14,4 C 13,3 C 72 % 0 lf 1019,4 hPa 0,0 l/m 0 min 0 min 172 W/m 23,0 km/h (4 Bft) 97,62 %
04.10.2017 16:40 14,1 C 14,4 C 13,3 C 71 % 0 lf 1019,5 hPa 0,0 l/m 0 min 0 min 167 W/m 27,2 km/h (4 Bft) 95,74 %
04.10.2017 16:42 14,1 C 13,9 C 13,3 C 71 % 0 lf 1019,5 hPa 0,0 l/m 0 min 0 min 165 W/m 20,9 km/h (4 Bft) 97,87 %
04.10.2017 16:44 14,1 C 13,9 C 13,3 C 72 % 0 lf 1019,4 hPa 0,0 l/m 0 min 0 min 165 W/m 23,0 km/h (4 Bft) 95,74 %
04.10.2017 16:46 14,1 C 13,9 C 13,3 C 73 % 0 lf 1019,3 hPa 0,0 l/m 2 min 0 min 164 W/m 18,8 km/h (3 Bft) 97,96 %
04.10.2017 16:48 14,0 C 13,9 C 13,3 C 72 % 0 lf 1019,3 hPa 0,0 l/m 2 min 0 min 163 W/m 20,9 km/h (4 Bft) 97,87 %
04.10.2017 16:50 14,0 C 13,9 C 12,8 C 72 % 0 lf 1019,3 hPa 0,0 l/m 2 min 0 min 164 W/m 16,7 km/h (3 Bft) 95,83 %
04.10.2017 16:52 14,0 C 13,9 C 12,8 C 72 % 0 lf 1019,4 hPa 0,0 l/m 2 min 0 min 165 W/m 23,0 km/h (4 Bft) 97,87 %
04.10.2017 16:54 14,0 C 13,9 C 12,8 C 72 % 0 lf 1019,4 hPa 0,0 l/m 2 min 0 min 164 W/m 18,8 km/h (3 Bft) 93,62 %
04.10.2017 16:56 13,9 C 13,9 C 12,8 C 72 % 0 lf 1019,3 hPa 0,0 l/m 2 min 0 min 165 W/m 25,1 km/h (4 Bft) 97,83 %
04.10.2017 16:58 13,9 C 13,9 C 12,8 C 72 % 0 lf 1019,3 hPa 0,0 l/m 2 min 0 min 165 W/m 27,2 km/h (4 Bft) 97,87 %
04.10.2017 17:00 13,9 C 13,9 C 12,8 C 72 % 0 lf 1019,3 hPa 0,0 l/m 2 min 0 min 163 W/m 27,2 km/h (4 Bft) 97,92 %
04.10.2017 17:02 13,9 C 13,9 C 12,8 C 72 % 0 lf 1019,4 hPa 0,0 l/m 0 min 0 min 125 W/m 25,1 km/h (4 Bft) 97,87 %
04.10.2017 17:04 13,9 C 13,9 C 12,8 C 72 % 0 lf 1019,4 hPa 0,0 l/m 0 min 0 min 79 W/m 20,9 km/h (4 Bft) 95,74 %
04.10.2017 17:06 13,8 C 13,9 C 12,8 C 72 % 0 lf 1019,2 hPa 0,0 l/m 0 min 0 min 80 W/m 18,8 km/h (3 Bft) 95,74 %
04.10.2017 17:08 13,8 C 13,9 C 12,8 C 72 % 0 lf 1019,2 hPa 0,0 l/m 0 min 0 min 80 W/m 20,9 km/h (4 Bft) 93,62 %
04.10.2017 17:10 13,8 C 13,9 C 12,8 C 72 % 0 lf 1019,3 hPa 0,0 l/m 0 min 0 min 79 W/m 20,9 km/h (4 Bft) 97,87 %
04.10.2017 17:12 13,8 C 13,9 C 12,8 C 72 % 0 lf 1019,4 hPa 0,0 l/m 0 min 0 min 79 W/m 20,9 km/h (4 Bft) 97,83 %
04.10.2017 17:14 13,8 C 13,9 C 12,8 C 72 % 0 lf 1019,4 hPa 0,0 l/m 0 min 0 min 51 W/m 16,7 km/h (3 Bft) 97,87 %
04.10.2017 17:16 13,8 C 13,9 C 12,8 C 73 % 0 lf 1019,4 hPa 0,0 l/m 0 min 0 min 28 W/m 14,6 km/h (3 Bft) 95,74 %
04.10.2017 17:18 13,8 C 13,9 C 12,8 C 73 % 0 lf 1019,3 hPa 0,0 l/m 0 min 0 min 40 W/m 25,1 km/h (4 Bft) 95,74 %
04.10.2017 17:20 13,8 C 13,9 C 12,8 C 73 % 0 lf 1019,3 hPa 0,0 l/m 0 min 0 min 40 W/m 18,8 km/h (3 Bft) 97,87 %
04.10.2017 17:22 13,7 C 13,9 C 12,8 C 73 % 0 lf 1019,4 hPa 0,0 l/m 0 min 0 min 41 W/m 16,7 km/h (3 Bft) 97,83 %
04.10.2017 17:24 13,8 C 13,9 C 12,8 C 73 % 0 lf 1019,3 hPa 0,0 l/m 0 min 0 min 44 W/m 14,6 km/h (3 Bft) 97,87 %
04.10.2017 17:26 13,7 C 13,9 C 12,8 C 73 % 0 lf 1019,2 hPa 0,0 l/m 0 min 0 min 46 W/m 20,9 km/h (4 Bft) 97,62 %
04.10.2017 17:28 13,7 C 13,9 C 12,8 C 73 % 0 lf 1019,2 hPa 0,0 l/m 0 min 0 min 50 W/m 20,9 km/h (4 Bft) 97,87 %
04.10.2017 17:30 13,7 C 13,9 C 12,8 C 73 % 0 lf 1019,3 hPa 0,0 l/m 0 min 0 min 52 W/m 20,9 km/h (4 Bft) 97,92 %
04.10.2017 17:32 13,7 C 13,9 C 12,8 C 74 % 0 lf 1019,3 hPa 0,0 l/m 0 min 0 min 49 W/m 31,4 km/h (5 Bft) 95,92 %
04.10.2017 17:34 13,7 C 13,9 C 12,8 C 74 % 0 lf 1019,3 hPa 0,0 l/m 0 min 0 min 46 W/m 23,0 km/h (4 Bft) 97,87 %
04.10.2017 17:36 13,7 C 13,9 C 12,8 C 74 % 0 lf 1019,2 hPa 0,0 l/m 0 min 0 min 45 W/m 14,6 km/h (3 Bft) 93,75 %
04.10.2017 17:38 13,7 C 13,9 C 12,8 C 74 % 0 lf 1019,2 hPa 0,0 l/m 0 min 0 min 45 W/m 20,9 km/h (4 Bft) 95,74 %
04.10.2017 17:40 13,7 C 13,9 C 12,8 C 74 % 0 lf 1019,1 hPa 0,0 l/m 0 min 0 min 47 W/m 27,2 km/h (4 Bft) 97,87 %
04.10.2017 17:42 13,7 C 13,9 C 12,8 C 74 % 0 lf 1019,1 hPa 0,0 l/m 0 min 0 min 47 W/m 29,3 km/h (5 Bft) 97,87 %
04.10.2017 17:44 13,7 C 13,9 C 12,8 C 74 % 0 lf 1019,1 hPa 0,0 l/m 0 min 0 min 45 W/m 18,8 km/h (3 Bft) 93,62 %
04.10.2017 17:46 13,7 C 13,9 C 12,8 C 74 % 0 lf 1019,1 hPa 0,0 l/m 0 min 0 min 40 W/m 20,9 km/h (4 Bft) 97,96 %
04.10.2017 17:48 13,7 C 13,9 C 12,8 C 74 % 0 lf 1019,1 hPa 0,0 l/m 0 min 0 min 37 W/m 23,0 km/h (4 Bft) 97,87 %
04.10.2017 17:50 13,7 C 13,9 C 12,8 C 74 % 0 lf 1019,0 hPa 0,0 l/m 0 min 0 min 35 W/m 20,9 km/h (4 Bft) 95,74 %
04.10.2017 17:52 13,7 C 13,9 C 12,8 C 74 % 0 lf 1019,1 hPa 0,0 l/m 0 min 0 min 38 W/m 18,8 km/h (3 Bft) 100,00 %
04.10.2017 17:54 13,7 C 13,9 C 12,8 C 74 % 0 lf 1019,0 hPa 0,0 l/m 0 min 0 min 41 W/m 31,4 km/h (5 Bft) 100,00 %
04.10.2017 17:56 13,7 C 13,9 C 12,8 C 74 % 0 lf 1019,0 hPa 0,0 l/m 0 min 0 min 40 W/m 31,4 km/h (5 Bft) 100,00 %
04.10.2017 17:58 13,7 C 13,9 C 12,8 C 75 % 0 lf 1019,1 hPa 0,0 l/m 0 min 0 min 36 W/m 33,5 km/h (5 Bft) 93,48 %
04.10.2017 18:00 13,7 C 13,9 C 12,8 C 74 % 0 lf 1019,0 hPa 0,0 l/m 0 min 0 min 32 W/m 23,0 km/h (4 Bft) 100,00 %
04.10.2017 18:02 13,7 C 13,3 C 12,8 C 74 % 0 lf 1019,0 hPa 0,0 l/m 0 min 0 min 30 W/m 12,6 km/h (3 Bft) 97,87 %
04.10.2017 18:04 13,7 C 13,3 C 12,2 C 75 % 0 lf 1018,9 hPa 0,0 l/m 0 min 0 min 30 W/m 20,9 km/h (4 Bft) 97,73 %
04.10.2017 18:06 13,7 C 13,3 C 12,2 C 75 % 0 lf 1018,9 hPa 0,0 l/m 0 min 0 min 31 W/m 25,1 km/h (4 Bft) 97,83 %
04.10.2017 18:10 13,7 C 13,3 C 12,2 C 75 % 0 lf 1018,8 hPa 0,0 l/m 0 min 0 min 30 W/m 27,2 km/h (4 Bft) 100,00 %
04.10.2017 18:12 13,6 C 13,3 C 12,2 C 75 % 3 lf 1018,8 hPa 0,0 l/m 0 min 0 min 26 W/m 18,8 km/h (3 Bft) 100,00 %
04.10.2017 18:14 13,6 C 13,3 C 12,2 C 75 % 1 lf 1018,8 hPa 0,0 l/m 0 min 0 min 27 W/m 16,7 km/h (3 Bft) 97,87 %
04.10.2017 18:16 13,6 C 13,3 C 12,2 C 75 % 0 lf 1018,8 hPa 0,0 l/m 0 min 0 min 30 W/m 20,9 km/h (4 Bft) 97,87 %
04.10.2017 18:18 13,6 C 13,3 C 12,2 C 75 % 0 lf 1018,8 hPa 0,0 l/m 0 min 0 min 32 W/m 18,8 km/h (3 Bft) 97,92 %
04.10.2017 18:20 13,6 C 13,3 C 12,2 C 75 % 0 lf 1018,9 hPa 0,0 l/m 0 min 0 min 32 W/m 14,6 km/h (3 Bft) 97,92 %
04.10.2017 18:22 13,6 C 13,3 C 12,2 C 75 % 1 lf 1018,8 hPa 0,0 l/m 0 min 0 min 32 W/m 10,5 km/h (2 Bft) 97,87 %
04.10.2017 18:24 13,6 C 13,3 C 12,2 C 76 % 0 lf 1018,8 hPa 0,0 l/m 0 min 0 min 34 W/m 16,7 km/h (3 Bft) 100,00 %
04.10.2017 18:26 13,6 C 13,3 C 12,2 C 76 % 0 lf 1018,9 hPa 0,0 l/m 0 min 0 min 38 W/m 14,6 km/h (3 Bft) 97,87 %
04.10.2017 18:28 13,6 C 13,3 C 12,2 C 76 % 0 lf 1018,9 hPa 0,0 l/m 0 min 0 min 32 W/m 14,6 km/h (3 Bft) 97,83 %
04.10.2017 18:30 13,6 C 13,3 C 12,2 C 76 % 0 lf 1018,9 hPa 0,0 l/m 0 min 0 min 28 W/m 14,6 km/h (3 Bft) 93,75 %
04.10.2017 18:32 13,6 C 13,3 C 12,2 C 76 % 0 lf 1018,8 hPa 0,0 l/m 0 min 0 min 25 W/m 14,6 km/h (3 Bft) 95,74 %
04.10.2017 18:34 13,6 C 13,3 C 12,2 C 76 % 0 lf 1018,9 hPa 0,0 l/m 0 min 0 min 23 W/m 16,7 km/h (3 Bft) 93,62 %
04.10.2017 18:36 13,5 C 13,3 C 12,2 C 76 % 0 lf 1019,0 hPa 0,0 l/m 0 min 0 min 20 W/m 16,7 km/h (3 Bft) 93,62 %
04.10.2017 18:38 13,5 C 13,3 C 12,2 C 76 % 0 lf 1019,1 hPa 0,0 l/m 0 min 0 min 17 W/m 16,7 km/h (3 Bft) 93,75 %
04.10.2017 18:40 13,5 C 13,3 C 12,2 C 76 % 0 lf 1019,2 hPa 0,0 l/m 0 min 0 min 14 W/m 20,9 km/h (4 Bft) 93,48 %
04.10.2017 18:42 13,5 C 13,3 C 12,2 C 77 % 0 lf 1019,1 hPa 0,0 l/m 0 min 0 min 14 W/m 10,5 km/h (2 Bft) 94,44 %
04.10.2017 18:44 13,4 C 13,3 C 12,2 C 77 % 0 lf 1019,0 hPa 0,0 l/m 0 min 0 min 14 W/m 14,6 km/h (3 Bft) 92,73 %
04.10.2017 18:46 13,4 C 13,3 C 12,2 C 77 % 0 lf 1019,0 hPa 0,0 l/m 0 min 0 min 14 W/m 14,6 km/h (3 Bft) 91,49 %
04.10.2017 18:48 13,4 C 13,3 C 12,2 C 77 % 0 lf 1019,0 hPa 0,0 l/m 0 min 0 min 12 W/m 10,5 km/h (2 Bft) 93,62 %
04.10.2017 18:50 13,4 C 13,3 C 12,2 C 77 % 0 lf 1019,0 hPa 0,0 l/m 0 min 0 min 11 W/m 16,7 km/h (3 Bft) 91,49 %
04.10.2017 18:52 13,4 C 13,3 C 12,2 C 77 % 0 lf 1019,0 hPa 0,0 l/m 0 min 0 min 9 W/m 12,6 km/h (3 Bft) 95,74 %
04.10.2017 18:54 13,4 C 12,8 C 12,2 C 77 % 0 lf 1018,9 hPa 0,0 l/m 0 min 0 min 9 W/m 14,6 km/h (3 Bft) 93,62 %
04.10.2017 18:56 13,4 C 12,8 C 12,2 C 77 % 0 lf 1018,9 hPa 0,0 l/m 0 min 0 min 9 W/m 16,7 km/h (3 Bft) 91,30 %
04.10.2017 18:58 13,4 C 12,8 C 12,2 C 78 % 0 lf 1018,8 hPa 0,0 l/m 0 min 0 min 8 W/m 12,6 km/h (3 Bft) 91,49 %
04.10.2017 19:00 13,3 C 12,8 C 12,2 C 78 % 0 lf 1018,7 hPa 0,0 l/m 0 min 0 min 7 W/m 12,6 km/h (3 Bft) 93,62 %
04.10.2017 19:02 13,3 C 12,8 C 11,7 C 78 % 0 lf 1018,6 hPa 0,0 l/m 0 min 0 min 7 W/m 12,6 km/h (3 Bft) 93,62 %
04.10.2017 19:04 13,3 C 12,8 C 11,7 C 78 % 0 lf 1018,6 hPa 0,0 l/m 0 min 0 min 7 W/m 16,7 km/h (3 Bft) 93,62 %
04.10.2017 19:06 13,3 C 12,8 C 11,7 C 78 % 0 lf 1018,8 hPa 0,0 l/m 0 min 0 min 7 W/m 12,6 km/h (3 Bft) 87,80 %
04.10.2017 19:08 13,3 C 12,8 C 11,7 C 78 % 0 lf 1018,7 hPa 0,0 l/m 0 min 0 min 7 W/m 18,8 km/h (3 Bft) 93,62 %
04.10.2017 19:10 13,3 C 12,8 C 11,7 C 78 % 0 lf 1018,7 hPa 0,0 l/m 0 min 0 min 7 W/m 10,5 km/h (2 Bft) 93,75 %
04.10.2017 19:12 13,3 C 12,8 C 11,7 C 78 % 0 lf 1018,6 hPa 0,0 l/m 0 min 0 min 7 W/m 10,5 km/h (2 Bft) 95,74 %
04.10.2017 19:14 13,3 C 12,8 C 11,7 C 78 % 0 lf 1018,6 hPa 0,0 l/m 0 min 0 min 6 W/m 14,6 km/h (3 Bft) 97,87 %
04.10.2017 19:16 13,3 C 12,8 C 11,7 C 78 % 0 lf 1018,5 hPa 0,0 l/m 0 min 0 min 7 W/m 12,6 km/h (3 Bft) 95,65 %
04.10.2017 19:18 13,2 C 12,8 C 11,7 C 78 % 0 lf 1018,5 hPa 0,0 l/m 0 min 0 min 6 W/m 16,7 km/h (3 Bft) 95,83 %
04.10.2017 19:20 13,2 C 12,8 C 11,7 C 78 % 0 lf 1018,6 hPa 0,0 l/m 0 min 0 min 0 W/m 12,6 km/h (3 Bft) 93,62 %
04.10.2017 19:22 13,2 C 12,8 C 11,7 C 78 % 0 lf 1018,5 hPa 0,0 l/m 0 min 0 min 5 W/m 12,6 km/h (3 Bft) 95,92 %
04.10.2017 19:24 13,2 C 12,8 C 11,7 C 78 % 0 lf 1018,6 hPa 0,0 l/m 0 min 0 min 0 W/m 10,5 km/h (2 Bft) 97,92 %
04.10.2017 19:26 13,2 C 12,8 C 11,7 C 78 % 0 lf 1018,5 hPa 0,0 l/m 0 min 0 min 2 W/m 10,5 km/h (2 Bft) 97,87 %
04.10.2017 19:28 13,2 C 12,8 C 11,7 C 79 % 0 lf 1018,6 hPa 0,0 l/m 0 min 0 min 0 W/m 12,6 km/h (3 Bft) 95,74 %
04.10.2017 19:30 13,1 C 12,2 C 11,1 C 79 % 0 lf 1018,5 hPa 0,0 l/m 0 min 0 min 4 W/m 10,5 km/h (2 Bft) 97,87 %
04.10.2017 19:32 13,1 C 12,2 C 11,1 C 79 % 0 lf 1018,4 hPa 0,0 l/m 0 min 0 min 0 W/m 12,6 km/h (3 Bft) 100,00 %
04.10.2017 19:34 13,1 C 12,2 C 11,1 C 79 % 0 lf 1018,3 hPa 0,0 l/m 0 min 0 min 0 W/m 12,6 km/h (3 Bft) 97,87 %
04.10.2017 19:36 13,1 C 12,2 C 11,1 C 79 % 0 lf 1018,3 hPa 0,0 l/m 0 min 0 min 0 W/m 8,4 km/h (2 Bft) 100,00 %
04.10.2017 19:38 13,1 C 12,2 C 11,1 C 79 % 0 lf 1018,4 hPa 0,0 l/m 0 min 0 min 5 W/m 14,6 km/h (3 Bft) 100,00 %
04.10.2017 19:40 13,0 C 12,2 C 11,1 C 79 % 0 lf 1018,3 hPa 0,0 l/m 0 min 0 min 5 W/m 14,6 km/h (3 Bft) 93,62 %
04.10.2017 19:42 13,0 C 12,2 C 11,7 C 79 % 0 lf 1018,3 hPa 0,0 l/m 0 min 0 min 5 W/m 12,6 km/h (3 Bft) 100,00 %
04.10.2017 19:44 13,0 C 12,2 C 11,7 C 79 % 0 lf 1018,3 hPa 0,0 l/m 0 min 0 min 0 W/m 12,6 km/h (3 Bft) 100,00 %
04.10.2017 19:46 12,9 C 12,2 C 11,7 C 79 % 0 lf 1018,3 hPa 0,0 l/m 0 min 0 min 0 W/m 16,7 km/h (3 Bft) 97,87 %
04.10.2017 19:48 12,9 C 12,2 C 11,7 C 79 % 0 lf 1018,3 hPa 0,0 l/m 0 min 0 min 0 W/m 12,6 km/h (3 Bft) 100,00 %
04.10.2017 19:50 12,9 C 12,2 C 11,7 C 79 % 0 lf 1018,2 hPa 0,0 l/m 0 min 0 min 0 W/m 14,6 km/h (3 Bft) 97,87 %
04.10.2017 19:52 12,9 C 12,2 C 11,7 C 79 % 0 lf 1018,2 hPa 0,0 l/m 0 min 0 min 0 W/m 14,6 km/h (3 Bft) 100,00 %
04.10.2017 19:54 12,9 C 12,2 C 11,7 C 79 % 0 lf 1018,2 hPa 0,0 l/m 0 min 0 min 0 W/m 12,6 km/h (3 Bft) 97,83 %
04.10.2017 19:56 12,9 C 12,2 C 11,1 C 79 % 0 lf 1018,2 hPa 0,0 l/m 0 min 0 min 0 W/m 16,7 km/h (3 Bft) 91,49 %
04.10.2017 19:58 12,9 C 12,2 C 11,1 C 80 % 0 lf 1018,1 hPa 0,0 l/m 0 min 0 min 0 W/m 14,6 km/h (3 Bft) 97,87 %
04.10.2017 20:00 12,9 C 12,2 C 11,1 C 80 % 0 lf 1018,1 hPa 0,0 l/m 0 min 0 min 0 W/m 12,6 km/h (3 Bft) 97,67 %
04.10.2017 20:02 12,8 C 12,2 C 11,1 C 80 % 0 lf 1018,2 hPa 0,0 l/m 0 min 0 min 0 W/m 14,6 km/h (3 Bft) 97,83 %
04.10.2017 20:04 12,8 C 12,2 C 11,1 C 80 % 0 lf 1018,1 hPa 0,0 l/m 0 min 0 min 5 W/m 8,4 km/h (2 Bft) 98,00 %
04.10.2017 20:06 12,8 C 12,8 C 11,7 C 80 % 0 lf 1018,1 hPa 0,0 l/m 0 min 0 min 5 W/m 18,8 km/h (3 Bft) 97,87 %
04.10.2017 20:08 12,8 C 12,2 C 11,1 C 80 % 0 lf 1018,2 hPa 0,0 l/m 0 min 0 min 5 W/m 12,6 km/h (3 Bft) 95,74 %
04.10.2017 20:10 12,8 C 12,2 C 11,1 C 80 % 0 lf 1018,1 hPa 0,0 l/m 0 min 0 min 5 W/m 12,6 km/h (3 Bft) 95,74 %
04.10.2017 20:12 12,8 C 12,2 C 11,1 C 80 % 0 lf 1018,1 hPa 0,0 l/m 0 min 0 min 5 W/m 14,6 km/h (3 Bft) 95,74 %
04.10.2017 20:14 12,8 C 12,2 C 11,7 C 80 % 0 lf 1018,1 hPa 0,0 l/m 0 min 0 min 5 W/m 12,6 km/h (3 Bft) 95,65 %
04.10.2017 20:16 12,8 C 12,2 C 11,7 C 80 % 0 lf 1018,2 hPa 0,0 l/m 0 min 0 min 0 W/m 14,6 km/h (3 Bft) 97,92 %
04.10.2017 20:18 12,8 C 12,2 C 11,1 C 80 % 0 lf 1018,1 hPa 0,0 l/m 0 min 0 min 0 W/m 14,6 km/h (3 Bft) 95,74 %
04.10.2017 20:20 12,8 C 12,2 C 11,1 C 80 % 0 lf 1018,2 hPa 0,0 l/m 0 min 0 min 0 W/m 12,6 km/h (3 Bft) 93,62 %
04.10.2017 20:22 12,8 C 12,2 C 11,7 C 81 % 0 lf 1018,2 hPa 0,0 l/m 0 min 0 min 5 W/m 10,5 km/h (2 Bft) 97,87 %
04.10.2017 20:24 12,8 C 12,2 C 11,1 C 81 % 0 lf 1018,2 hPa 0,0 l/m 0 min 0 min 5 W/m 10,5 km/h (2 Bft) 97,87 %
04.10.2017 20:26 12,8 C 12,2 C 11,1 C 81 % 0 lf 1018,3 hPa 0,0 l/m 0 min 0 min 5 W/m 12,6 km/h (3 Bft) 95,65 %
04.10.2017 20:28 12,8 C 12,2 C 11,1 C 81 % 0 lf 1018,3 hPa 0,0 l/m 0 min 0 min 5 W/m 10,5 km/h (2 Bft) 93,62 %
04.10.2017 20:30 12,8 C 12,2 C 11,1 C 81 % 0 lf 1018,3 hPa 0,0 l/m 0 min 0 min 5 W/m 12,6 km/h (3 Bft) 93,62 %
04.10.2017 20:32 12,8 C 12,2 C 11,1 C 81 % 0 lf 1018,3 hPa 0,0 l/m 0 min 0 min 0 W/m 12,6 km/h (3 Bft) 95,74 %
04.10.2017 20:34 12,7 C 12,2 C 11,7 C 81 % 0 lf 1018,3 hPa 0,0 l/m 0 min 0 min 0 W/m 14,6 km/h (3 Bft) 95,74 %
04.10.2017 20:36 12,7 C 12,2 C 11,7 C 81 % 0 lf 1018,2 hPa 0,0 l/m 0 min 0 min 0 W/m 12,6 km/h (3 Bft) 95,74 %
04.10.2017 20:38 12,7 C 12,2 C 11,1 C 81 % 0 lf 1018,2 hPa 0,0 l/m 0 min 0 min 0 W/m 12,6 km/h (3 Bft) 93,62 %
04.10.2017 20:40 12,7 C 12,2 C 11,7 C 81 % 0 lf 1018,3 hPa 0,0 l/m 0 min 0 min 0 W/m 14,6 km/h (3 Bft) 93,62 %
04.10.2017 20:42 12,8 C 12,2 C 11,7 C 81 % 0 lf 1018,4 hPa 0,0 l/m 0 min 0 min 0 W/m 16,7 km/h (3 Bft) 97,83 %
04.10.2017 20:44 12,7 C 12,2 C 11,7 C 81 % 0 lf 1018,4 hPa 0,0 l/m 0 min 0 min 5 W/m 14,6 km/h (3 Bft) 97,87 %
04.10.2017 20:46 12,7 C 12,8 C 11,7 C 81 % 0 lf 1018,3 hPa 0,0 l/m 0 min 0 min 5 W/m 14,6 km/h (3 Bft) 95,74 %
04.10.2017 20:48 12,7 C 12,8 C 11,7 C 81 % 0 lf 1018,3 hPa 0,0 l/m 0 min 0 min 5 W/m 16,7 km/h (3 Bft) 95,74 %
04.10.2017 20:50 12,7 C 12,8 C 11,7 C 81 % 0 lf 1018,3 hPa 0,0 l/m 0 min 0 min 5 W/m 16,7 km/h (3 Bft) 95,74 %
04.10.2017 20:52 12,7 C 12,8 C 11,7 C 81 % 0 lf 1018,3 hPa 0,0 l/m 0 min 0 min 5 W/m 16,7 km/h (3 Bft) 97,83 %
04.10.2017 20:54 12,8 C 12,8 C 11,7 C 81 % 0 lf 1018,3 hPa 0,0 l/m 0 min 0 min 5 W/m 18,8 km/h (3 Bft) 93,62 %
04.10.2017 20:56 12,7 C 12,8 C 11,7 C 81 % 0 lf 1018,3 hPa 0,0 l/m 0 min 0 min 5 W/m 16,7 km/h (3 Bft) 97,87 %
04.10.2017 20:58 12,7 C 12,8 C 11,7 C 81 % 0 lf 1018,2 hPa 0,0 l/m 0 min 0 min 5 W/m 14,6 km/h (3 Bft) 97,62 %
04.10.2017 21:00 12,8 C 12,8 C 11,7 C 81 % 0 lf 1018,1 hPa 0,0 l/m 0 min 0 min 5 W/m 18,8 km/h (3 Bft) 100,00 %
04.10.2017 21:02 12,8 C 12,8 C 11,7 C 81 % 0 lf 1018,2 hPa 0,0 l/m 0 min 0 min 5 W/m 12,6 km/h (3 Bft) 100,00 %
04.10.2017 21:04 12,8 C 12,8 C 11,7 C 81 % 0 lf 1018,2 hPa 0,0 l/m 0 min 0 min 5 W/m 14,6 km/h (3 Bft) 100,00 %
04.10.2017 21:06 12,8 C 12,8 C 11,7 C 81 % 0 lf 1018,2 hPa 0,0 l/m 0 min 0 min 5 W/m 25,1 km/h (4 Bft) 93,62 %
04.10.2017 21:08 12,8 C 12,8 C 11,7 C 81 % 0 lf 1018,2 hPa 0,0 l/m 0 min 0 min 5 W/m 16,7 km/h (3 Bft) 97,87 %
04.10.2017 21:10 12,8 C 12,8 C 11,7 C 81 % 0 lf 1018,2 hPa 0,0 l/m 0 min 0 min 5 W/m 25,1 km/h (4 Bft) 100,00 %
04.10.2017 21:12 12,8 C 12,8 C 11,7 C 81 % 0 lf 1018,2 hPa 0,0 l/m 0 min 0 min 5 W/m 16,7 km/h (3 Bft) 100,00 %
04.10.2017 21:14 12,8 C 12,8 C 11,7 C 81 % 0 lf 1018,2 hPa 0,0 l/m 0 min 0 min 5 W/m 23,0 km/h (4 Bft) 100,00 %
04.10.2017 21:16 12,8 C 12,8 C 11,7 C 81 % 0 lf 1018,2 hPa 0,0 l/m 0 min 0 min 5 W/m 18,8 km/h (3 Bft) 95,65 %
04.10.2017 21:18 12,8 C 12,8 C 11,7 C 81 % 0 lf 1018,2 hPa 0,0 l/m 0 min 0 min 5 W/m 27,2 km/h (4 Bft) 97,87 %
04.10.2017 21:20 12,9 C 12,8 C 11,7 C 81 % 0 lf 1018,2 hPa 0,0 l/m 0 min 0 min 5 W/m 20,9 km/h (4 Bft) 95,24 %
04.10.2017 21:22 12,9 C 12,8 C 11,7 C 80 % 0 lf 1018,2 hPa 0,0 l/m 0 min 0 min 5 W/m 20,9 km/h (4 Bft) 97,87 %
04.10.2017 21:24 12,9 C 12,8 C 11,7 C 80 % 0 lf 1018,2 hPa 0,0 l/m 0 min 0 min 5 W/m 23,0 km/h (4 Bft) 95,74 %
04.10.2017 21:26 12,9 C 12,8 C 11,7 C 80 % 0 lf 1018,3 hPa 0,0 l/m 0 min 0 min 5 W/m 16,7 km/h (3 Bft) 97,83 %
04.10.2017 21:28 12,9 C 12,8 C 11,7 C 80 % 0 lf 1018,2 hPa 0,0 l/m 0 min 0 min 5 W/m 23,0 km/h (4 Bft) 97,92 %
04.10.2017 21:30 12,9 C 12,8 C 11,7 C 80 % 0 lf 1018,1 hPa 0,0 l/m 0 min 0 min 5 W/m 29,3 km/h (5 Bft) 95,83 %
04.10.2017 21:32 12,9 C 12,8 C 11,7 C 80 % 0 lf 1018,1 hPa 0,0 l/m 0 min 0 min 5 W/m 16,7 km/h (3 Bft) 93,62 %
04.10.2017 21:34 12,9 C 12,8 C 11,7 C 80 % 0 lf 1018,1 hPa 0,0 l/m 0 min 0 min 5 W/m 16,7 km/h (3 Bft) 97,87 %
04.10.2017 21:36 12,9 C 12,8 C 11,7 C 80 % 0 lf 1018,1 hPa 0,0 l/m 0 min 0 min 0 W/m 14,6 km/h (3 Bft) 97,83 %
04.10.2017 21:38 12,9 C 12,8 C 11,7 C 80 % 0 lf 1018,1 hPa 0,0 l/m 0 min 0 min 0 W/m 16,7 km/h (3 Bft) 93,62 %
04.10.2017 21:40 12,9 C 12,8 C 11,7 C 80 % 0 lf 1018,1 hPa 0,0 l/m 0 min 0 min 0 W/m 20,9 km/h (4 Bft) 97,92 %
04.10.2017 21:42 12,9 C 12,8 C 11,7 C 80 % 0 lf 1018,1 hPa 0,0 l/m 0 min 0 min 0 W/m 14,6 km/h (3 Bft) 95,83 %
04.10.2017 21:44 12,9 C 12,8 C 11,7 C 80 % 0 lf 1018,0 hPa 0,0 l/m 0 min 0 min 0 W/m 20,9 km/h (4 Bft) 97,87 %
04.10.2017 21:46 12,9 C 12,8 C 11,7 C 80 % 0 lf 1018,1 hPa 0,0 l/m 0 min 0 min 0 W/m 18,8 km/h (3 Bft) 97,83 %
04.10.2017 21:48 12,9 C 12,8 C 11,7 C 80 % 0 lf 1018,0 hPa 0,0 l/m 0 min 0 min 0 W/m 23,0 km/h (4 Bft) 97,87 %
04.10.2017 21:50 12,9 C 12,8 C 11,7 C 80 % 0 lf 1017,9 hPa 0,0 l/m 0 min 0 min 0 W/m 18,8 km/h (3 Bft) 97,87 %
04.10.2017 21:52 12,9 C 12,8 C 11,7 C 80 % 0 lf 1017,8 hPa 0,0 l/m 0 min 0 min 0 W/m 23,0 km/h (4 Bft) 97,87 %
04.10.2017 21:54 12,9 C 12,8 C 11,7 C 80 % 0 lf 1017,7 hPa 0,0 l/m 0 min 0 min 0 W/m 27,2 km/h (4 Bft) 97,87 %
04.10.2017 21:56 12,9 C 12,8 C 11,7 C 80 % 0 lf 1017,6 hPa 0,0 l/m 0 min 0 min 0 W/m 29,3 km/h (5 Bft) 97,87 %
04.10.2017 21:58 12,9 C 12,8 C 11,7 C 80 % 0 lf 1017,7 hPa 0,0 l/m 0 min 0 min 0 W/m 18,8 km/h (3 Bft) 97,83 %
04.10.2017 22:00 13,0 C 12,8 C 11,7 C 80 % 0 lf 1017,9 hPa 0,0 l/m 0 min 0 min 0 W/m 20,9 km/h (4 Bft) 95,92 %
04.10.2017 22:02 13,0 C 12,8 C 11,7 C 80 % 0 lf 1017,8 hPa 0,0 l/m 0 min 0 min 0 W/m 27,2 km/h (4 Bft) 95,74 %
04.10.2017 22:04 13,0 C 12,8 C 11,7 C 80 % 0 lf 1017,8 hPa 0,0 l/m 0 min 0 min 0 W/m 23,0 km/h (4 Bft) 97,83 %
04.10.2017 22:06 13,0 C 12,8 C 11,7 C 80 % 0 lf 1018,0 hPa 0,0 l/m 0 min 0 min 0 W/m 18,8 km/h (3 Bft) 100,00 %
04.10.2017 22:08 13,1 C 12,8 C 11,7 C 80 % 0 lf 1017,9 hPa 0,0 l/m 0 min 0 min 0 W/m 16,7 km/h (3 Bft) 100,00 %
04.10.2017 22:10 13,1 C 12,8 C 11,7 C 80 % 0 lf 1017,9 hPa 0,0 l/m 0 min 0 min 5 W/m 18,8 km/h (3 Bft) 100,00 %
04.10.2017 22:12 13,1 C 12,8 C 11,7 C 80 % 0 lf 1017,9 hPa 0,0 l/m 0 min 0 min 5 W/m 23,0 km/h (4 Bft) 93,62 %
04.10.2017 22:14 13,1 C 12,8 C 11,7 C 80 % 0 lf 1017,7 hPa 0,0 l/m 0 min 0 min 5 W/m 18,8 km/h (3 Bft) 95,65 %
04.10.2017 22:16 13,1 C 12,8 C 11,7 C 80 % 0 lf 1017,6 hPa 0,0 l/m 0 min 0 min 5 W/m 23,0 km/h (4 Bft) 95,74 %
04.10.2017 22:18 13,1 C 12,8 C 11,7 C 80 % 0 lf 1017,5 hPa 0,0 l/m 0 min 0 min 5 W/m 27,2 km/h (4 Bft) 97,87 %
04.10.2017 22:20 13,1 C 12,8 C 11,7 C 79 % 0 lf 1017,5 hPa 0,0 l/m 0 min 0 min 5 W/m 33,5 km/h (5 Bft) 100,00 %
04.10.2017 22:22 13,1 C 12,8 C 11,7 C 79 % 0 lf 1017,8 hPa 0,0 l/m 0 min 0 min 5 W/m 23,0 km/h (4 Bft) 95,74 %
04.10.2017 22:24 13,1 C 12,8 C 11,7 C 79 % 0 lf 1017,9 hPa 0,0 l/m 0 min 0 min 5 W/m 33,5 km/h (5 Bft) 95,74 %
04.10.2017 22:26 13,1 C 12,8 C 11,7 C 79 % 0 lf 1017,9 hPa 0,0 l/m 0 min 0 min 5 W/m 16,7 km/h (3 Bft) 95,65 %
04.10.2017 22:28 13,1 C 12,8 C 11,7 C 80 % 0 lf 1017,9 hPa 0,0 l/m 0 min 0 min 0 W/m 20,9 km/h (4 Bft) 97,87 %
04.10.2017 22:30 13,1 C 12,8 C 11,7 C 80 % 0 lf 1018,0 hPa 0,0 l/m 0 min 0 min 0 W/m 25,1 km/h (4 Bft) 89,36 %
04.10.2017 22:32 13,1 C 12,8 C 11,7 C 80 % 0 lf 1018,0 hPa 0,0 l/m 0 min 0 min 0 W/m 20,9 km/h (4 Bft) 95,74 %
04.10.2017 22:34 13,1 C 12,8 C 11,7 C 80 % 0 lf 1018,0 hPa 0,0 l/m 0 min 0 min 0 W/m 25,1 km/h (4 Bft) 95,74 %
04.10.2017 22:36 13,1 C 12,8 C 11,7 C 79 % 0 lf 1018,0 hPa 0,0 l/m 0 min 0 min 0 W/m 25,1 km/h (4 Bft) 95,74 %
04.10.2017 22:38 13,1 C 12,8 C 11,7 C 79 % 0 lf 1018,1 hPa 0,0 l/m 0 min 0 min 0 W/m 25,1 km/h (4 Bft) 93,48 %
04.10.2017 22:40 13,1 C 12,8 C 11,7 C 80 % 0 lf 1018,0 hPa 0,0 l/m 0 min 0 min 0 W/m 27,2 km/h (4 Bft) 93,48 %
04.10.2017 22:42 13,1 C 12,8 C 11,7 C 79 % 0 lf 1018,0 hPa 0,0 l/m 0 min 0 min 0 W/m 23,0 km/h (4 Bft) 95,74 %
04.10.2017 22:44 13,2 C 12,8 C 11,7 C 79 % 0 lf 1017,9 hPa 0,0 l/m 0 min 0 min 0 W/m 20,9 km/h (4 Bft) 89,36 %
04.10.2017 22:46 13,2 C 12,8 C 11,7 C 79 % 0 lf 1017,7 hPa 0,0 l/m 0 min 0 min 0 W/m 23,0 km/h (4 Bft) 93,62 %
04.10.2017 22:48 13,2 C 12,8 C 11,7 C 79 % 0 lf 1017,7 hPa 0,0 l/m 0 min 0 min 0 W/m 29,3 km/h (5 Bft) 93,62 %
04.10.2017 22:50 13,2 C 12,8 C 11,7 C 79 % 0 lf 1017,5 hPa 0,0 l/m 0 min 0 min 0 W/m 20,9 km/h (4 Bft) 93,48 %
04.10.2017 22:52 13,2 C 12,8 C 11,7 C 79 % 0 lf 1017,6 hPa 0,0 l/m 0 min 0 min 0 W/m 27,2 km/h (4 Bft) 91,49 %
04.10.2017 22:54 13,2 C 12,8 C 11,7 C 79 % 0 lf 1017,4 hPa 0,0 l/m 0 min 0 min 0 W/m 25,1 km/h (4 Bft) 93,62 %
04.10.2017 22:56 13,2 C 12,8 C 11,7 C 79 % 0 lf 1017,5 hPa 0,0 l/m 0 min 0 min 0 W/m 20,9 km/h (4 Bft) 93,62 %
04.10.2017 22:58 13,2 C 12,8 C 11,7 C 79 % 0 lf 1017,5 hPa 0,0 l/m 0 min 0 min 0 W/m 29,3 km/h (5 Bft) 95,74 %
04.10.2017 23:00 13,2 C 12,8 C 11,7 C 79 % 0 lf 1017,5 hPa 0,0 l/m 0 min 0 min 0 W/m 27,2 km/h (4 Bft) 93,02 %
04.10.2017 23:02 13,2 C 12,8 C 11,7 C 79 % 0 lf 1017,5 hPa 0,0 l/m 0 min 0 min 0 W/m 27,2 km/h (4 Bft) 93,62 %
04.10.2017 23:04 13,2 C 12,8 C 11,7 C 79 % 0 lf 1017,5 hPa 0,0 l/m 0 min 0 min 0 W/m 23,0 km/h (4 Bft) 91,49 %
04.10.2017 23:06 13,2 C 12,8 C 11,7 C 79 % 0 lf 1017,5 hPa 0,0 l/m 0 min 0 min 0 W/m 25,1 km/h (4 Bft) 93,62 %
04.10.2017 23:08 13,2 C 12,8 C 11,7 C 79 % 0 lf 1017,6 hPa 0,0 l/m 0 min 0 min 0 W/m 27,2 km/h (4 Bft) 95,74 %
04.10.2017 23:10 13,2 C 12,8 C 11,7 C 79 % 0 lf 1017,5 hPa 0,0 l/m 0 min 0 min 0 W/m 23,0 km/h (4 Bft) 95,65 %
04.10.2017 23:12 13,2 C 12,8 C 11,7 C 79 % 0 lf 1017,5 hPa 0,0 l/m 0 min 0 min 0 W/m 25,1 km/h (4 Bft) 95,74 %
04.10.2017 23:14 13,2 C 12,8 C 11,7 C 79 % 0 lf 1017,4 hPa 0,0 l/m 0 min 0 min 0 W/m 25,1 km/h (4 Bft) 97,87 %
04.10.2017 23:16 13,2 C 12,8 C 11,7 C 79 % 0 lf 1017,3 hPa 0,0 l/m 0 min 0 min 0 W/m 20,9 km/h (4 Bft) 95,74 %
04.10.2017 23:18 13,2 C 12,8 C 11,7 C 79 % 0 lf 1017,3 hPa 0,0 l/m 0 min 0 min 0 W/m 23,0 km/h (4 Bft) 95,74 %
04.10.2017 23:20 13,2 C 12,8 C 11,7 C 80 % 0 lf 1017,2 hPa 0,0 l/m 0 min 0 min 0 W/m 20,9 km/h (4 Bft) 97,87 %
04.10.2017 23:22 13,2 C 12,8 C 11,7 C 80 % 0 lf 1017,2 hPa 0,0 l/m 0 min 0 min 0 W/m 25,1 km/h (4 Bft) 91,30 %
04.10.2017 23:24 13,2 C 12,8 C 11,7 C 80 % 0 lf 1017,3 hPa 0,0 l/m 0 min 0 min 0 W/m 16,7 km/h (3 Bft) 97,87 %
04.10.2017 23:26 13,2 C 12,8 C 11,7 C 80 % 0 lf 1017,3 hPa 0,0 l/m 0 min 0 min 0 W/m 16,7 km/h (3 Bft) 97,87 %
04.10.2017 23:28 13,2 C 12,8 C 11,7 C 80 % 0 lf 1017,2 hPa 0,0 l/m 0 min 0 min 0 W/m 31,4 km/h (5 Bft) 97,87 %
04.10.2017 23:30 13,2 C 12,8 C 11,7 C 80 % 0 lf 1017,3 hPa 0,0 l/m 0 min 0 min 0 W/m 29,3 km/h (5 Bft) 97,87 %
04.10.2017 23:32 13,2 C 12,8 C 11,7 C 80 % 0 lf 1017,3 hPa 0,0 l/m 0 min 0 min 0 W/m 23,0 km/h (4 Bft) 100,00 %
04.10.2017 23:34 13,2 C 12,8 C 11,7 C 80 % 1 lf 1017,3 hPa 0,0 l/m 0 min 0 min 0 W/m 23,0 km/h (4 Bft) 97,83 %
04.10.2017 23:36 13,2 C 12,8 C 11,7 C 80 % 0 lf 1017,3 hPa 0,0 l/m 0 min 0 min 0 W/m 31,4 km/h (5 Bft) 100,00 %
04.10.2017 23:38 13,2 C 12,8 C 11,7 C 80 % 1 lf 1017,2 hPa 0,0 l/m 0 min 0 min 0 W/m 20,9 km/h (4 Bft) 100,00 %
04.10.2017 23:40 13,2 C 12,8 C 11,7 C 80 % 0 lf 1017,2 hPa 0,0 l/m 0 min 0 min 0 W/m 18,8 km/h (3 Bft) 93,75 %
04.10.2017 23:42 13,2 C 12,8 C 11,7 C 80 % 0 lf 1017,1 hPa 0,0 l/m 0 min 0 min 0 W/m 23,0 km/h (4 Bft) 100,00 %
04.10.2017 23:44 13,1 C 12,8 C 11,7 C 80 % 0 lf 1017,1 hPa 0,0 l/m 0 min 0 min 0 W/m 27,2 km/h (4 Bft) 97,83 %
04.10.2017 23:46 13,1 C 12,8 C 11,7 C 80 % 0 lf 1017,0 hPa 0,0 l/m 0 min 0 min 0 W/m 25,1 km/h (4 Bft) 100,00 %
04.10.2017 23:48 13,1 C 12,8 C 11,7 C 80 % 1 lf 1017,0 hPa 0,0 l/m 0 min 0 min 0 W/m 25,1 km/h (4 Bft) 97,87 %
04.10.2017 23:50 13,1 C 12,8 C 11,7 C 81 % 0 lf 1017,0 hPa 0,0 l/m 0 min 0 min 0 W/m 27,2 km/h (4 Bft) 100,00 %
04.10.2017 23:52 13,1 C 12,8 C 11,7 C 81 % 0 lf 1017,0 hPa 0,0 l/m 0 min 0 min 0 W/m 20,9 km/h (4 Bft) 97,87 %
04.10.2017 23:54 13,1 C 12,8 C 11,7 C 81 % 0 lf 1017,0 hPa 0,0 l/m 0 min 0 min 0 W/m 18,8 km/h (3 Bft) 97,87 %
04.10.2017 23:56 13,1 C 12,8 C 11,7 C 81 % 0 lf 1017,0 hPa 0,0 l/m 0 min 0 min 0 W/m 23,0 km/h (4 Bft) 97,83 %
04.10.2017 23:58 13,1 C 12,8 C 11,7 C 81 % 0 lf 1017,1 hPa 0,0 l/m 0 min 0 min 0 W/m 29,3 km/h (5 Bft) 100,00 %
_ Min-Zeit 07:40 02:30 02:28 14:28 00:00 23:46 - - - - 02:14 15:00
Minimum _ 10,1 C 10,0 C 8,9 C 69 % 0 lf 1017,0 hPa - - - - 6,3 km/h (2 Bft) 87,76 %
_ Max-Zeit 14:24 11:46 11:44 08:10 18:12 00:30 00:00 12:10 00:00 12:32 14:30 00:00
Maximum _ 14,9 C 19,4 C 16,1 C 92 % 3 lf 1023,4 hPa 0,0 l/m 4 min 0 min 675 W/m 46,0 km/h
W (6 Bft)
100,00 %
Durchschnitt _ 12,3 C 12,7 C 11,6 C 83 % 0 lf 1020,5 hPa #0,0 l/m #3:56 h #0 min. 147 W/m 19,3 km/h (3 Bft) 96,45 %
© 2017 W. Hausmann